Observation data for Abernathy on 01/17/2021      Previous  Date  Next       Current Mesonet Observations  Soil Data  Daily Summary Page  Observations in Plain Language
KARS 170600Z 33007KT M03/M07 A3011 RMK A01 T10281073  RH  071%=      5-min Rain = 0
KARS 170601Z 33007KT M03/M07 A3011 RMK A01 T10281073  RH  071%=      5-min Rain = 0
KARS 170602Z 33008KT M03/M07 A3011 RMK A01 T10291074  RH  071%=      5-min Rain = 0
KARS 170603Z 33009KT M03/M07 A3011 RMK A01 T10291074  RH  071%=      5-min Rain = 0
KARS 170604Z 33009KT M03/M07 A3011 RMK A01 T10281074  RH  071%=      5-min Rain = 0
KARS 170605Z 33008KT M03/M07 A3011 RMK A01 T10271074  RH  070%=      5-min Rain = 0
KARS 170606Z 33008KT M03/M07 A3011 RMK A01 T10271074  RH  070%=      5-min Rain = 0
KARS 170607Z 34008KT M03/M07 A3011 RMK A01 T10271074  RH  070%=      5-min Rain = 0
KARS 170608Z 34008KT M03/M07 A3011 RMK A01 T10271073  RH  071%=      5-min Rain = 0
KARS 170609Z 34008KT M03/M07 A3011 RMK A01 T10271072  RH  071%=      5-min Rain = 0
KARS 170610Z 34009KT M03/M07 A3011 RMK A01 T10271072  RH  071%=      5-min Rain = 0
KARS 170611Z 34009KT M03/M07 A3011 RMK A01 T10261071  RH  071%=      5-min Rain = 0
KARS 170612Z 34009KT M03/M07 A3012 RMK A01 T10251071  RH  071%=      5-min Rain = 0
KARS 170613Z 34009KT M03/M07 A3012 RMK A01 T10251070  RH  071%=      5-min Rain = 0
KARS 170614Z 34009KT M02/M07 A3011 RMK A01 T10241070  RH  071%=      5-min Rain = 0
KARS 170615Z 34008KT M02/M07 A3011 RMK A01 T10241070  RH  071%=      5-min Rain = 0
KARS 170616Z 34008KT M02/M07 A3011 RMK A01 T10241070  RH  071%=      5-min Rain = 0
KARS 170617Z 34008KT M02/M07 A3011 RMK A01 T10241070  RH  071%=      5-min Rain = 0
KARS 170618Z 34008KT M02/M07 A3011 RMK A01 T10231070  RH  071%=      5-min Rain = 0
KARS 170619Z 34008KT M02/M07 A3011 RMK A01 T10231069  RH  070%=      5-min Rain = 0
KARS 170620Z 34007KT M02/M07 A3011 RMK A01 T10221069  RH  070%=      5-min Rain = 0
KARS 170621Z 34007KT M02/M07 A3011 RMK A01 T10221069  RH  070%=      5-min Rain = 0
KARS 170622Z 35007KT M02/M07 A3011 RMK A01 T10221069  RH  070%=      5-min Rain = 0
KARS 170623Z 35006KT M02/M07 A3011 RMK A01 T10221069  RH  070%=      5-min Rain = 0
KARS 170624Z 35006KT M02/M07 A3011 RMK A01 T10221069  RH  070%=      5-min Rain = 0
KARS 170625Z 35006KT M02/M07 A3011 RMK A01 T10231069  RH  070%=      5-min Rain = 0
KARS 170626Z 34006KT M02/M07 A3011 RMK A01 T10231070  RH  070%=      5-min Rain = 0
KARS 170627Z 34006KT M02/M07 A3011 RMK A01 T10241070  RH  071%=      5-min Rain = 0
KARS 170628Z 35005KT M02/M07 A3011 RMK A01 T10241070  RH  071%=      5-min Rain = 0
KARS 170629Z 35004KT M03/M07 A3011 RMK A01 T10251070  RH  071%=      5-min Rain = 0
KARS 170630Z 36004KT M03/M07 A3011 RMK A01 T10261071  RH  071%=      5-min Rain = 0
KARS 170631Z 01003KT M03/M07 A3011 RMK A01 T10271071  RH  072%=      5-min Rain = 0
KARS 170632Z 01003KT M03/M07 A3011 RMK A01 T10281071  RH  072%=      5-min Rain = 0
KARS 170633Z 01003KT M03/M07 A3011 RMK A01 T10281070  RH  073%=      5-min Rain = 0
KARS 170634Z 00004KT M03/M07 A3011 RMK A01 T10291070  RH  073%=      5-min Rain = 0
KARS 170635Z 35005KT M03/M07 A3011 RMK A01 T10291070  RH  073%=      5-min Rain = 0
KARS 170636Z 35006KT M03/M07 A3011 RMK A01 T10291070  RH  073%=      5-min Rain = 0
KARS 170637Z 34007KT M03/M07 A3011 RMK A01 T10281070  RH  073%=      5-min Rain = 0
KARS 170638Z 34007KT M03/M07 A3011 RMK A01 T10261070  RH  072%=      5-min Rain = 0
KARS 170639Z 34007KT M02/M07 A3011 RMK A01 T10241070  RH  071%=      5-min Rain = 0
KARS 170640Z 34007KT M02/M07 A3011 RMK A01 T10231071  RH  070%=      5-min Rain = 0
KARS 170641Z 34007KT M02/M07 A3011 RMK A01 T10231071  RH  070%=      5-min Rain = 0
KARS 170642Z 34007KT M02/M07 A3011 RMK A01 T10231071  RH  070%=      5-min Rain = 0
KARS 170643Z 34007KT M02/M07 A3011 RMK A01 T10221071  RH  070%=      5-min Rain = 0
KARS 170644Z 34007KT M02/M07 A3011 RMK A01 T10231071  RH  069%=      5-min Rain = 0
KARS 170645Z 34007KT M02/M07 A3011 RMK A01 T10231071  RH  070%=      5-min Rain = 0
KARS 170646Z 34007KT M02/M07 A3011 RMK A01 T10241071  RH  070%=      5-min Rain = 0
KARS 170647Z 34007KT M03/M07 A3011 RMK A01 T10251071  RH  070%=      5-min Rain = 0
KARS 170648Z 34007KT M03/M07 A3011 RMK A01 T10251071  RH  071%=      5-min Rain = 0
KARS 170649Z 34007KT M03/M07 A3011 RMK A01 T10261071  RH  071%=      5-min Rain = 0
KARS 170650Z 34007KT M03/M07 A3011 RMK A01 T10271072  RH  071%=      5-min Rain = 0
KARS 170651Z 34007KT M03/M07 A3011 RMK A01 T10271071  RH  071%=      5-min Rain = 0
KARS 170652Z 34007KT M03/M07 A3011 RMK A01 T10271072  RH  071%=      5-min Rain = 0
KARS 170653Z 34007KT M03/M07 A3011 RMK A01 T10271072  RH  071%=      5-min Rain = 0
KARS 170654Z 34006KT M03/M07 A3011 RMK A01 T10271072  RH  071%=      5-min Rain = 0
KARS 170655Z 34006KT M03/M07 A3011 RMK A01 T10281072  RH  072%=      5-min Rain = 0
KARS 170656Z 34005KT M03/M07 A3011 RMK A01 T10281072  RH  072%=      5-min Rain = 0
KARS 170657Z 34006KT M03/M07 A3011 RMK A01 T10281072  RH  072%=      5-min Rain = 0
KARS 170658Z 33006KT M03/M07 A3011 RMK A01 T10291072  RH  072%=      5-min Rain = 0
KARS 170659Z 33006KT M03/M07 A3011 RMK A01 T10301072  RH  073%=      5-min Rain = 0
KARS 170700Z 33006KT M03/M07 A3011 RMK A01 T10311073  RH  073%=      5-min Rain = 0
KARS 170701Z 33006KT M03/M07 A3011 RMK A01 T10331073  RH  074%=      5-min Rain = 0
KARS 170702Z 33006KT M03/M07 A3011 RMK A01 T10341073  RH  075%=      5-min Rain = 0
KARS 170703Z 33006KT M03/M07 A3011 RMK A01 T10341072  RH  075%=      5-min Rain = 0
KARS 170704Z 33007KT M03/M07 A3011 RMK A01 T10331071  RH  075%=      5-min Rain = 0
KARS 170705Z 33007KT M03/M07 A3011 RMK A01 T10311070  RH  075%=      5-min Rain = 0
KARS 170706Z 33007KT M03/M07 A3011 RMK A01 T10291069  RH  074%=      5-min Rain = 0
KARS 170707Z 33007KT M03/M07 A3011 RMK A01 T10271069  RH  073%=      5-min Rain = 0
KARS 170708Z 33007KT M03/M07 A3011 RMK A01 T10261069  RH  072%=      5-min Rain = 0
KARS 170709Z 33006KT M03/M07 A3011 RMK A01 T10261069  RH  072%=      5-min Rain = 0
KARS 170710Z 33006KT M03/M07 A3011 RMK A01 T10261069  RH  072%=      5-min Rain = 0
KARS 170711Z 33006KT M03/M07 A3011 RMK A01 T10261069  RH  072%=      5-min Rain = 0
KARS 170712Z 33006KT M03/M07 A3011 RMK A01 T10261069  RH  072%=      5-min Rain = 0
KARS 170713Z 33006KT M03/M07 A3011 RMK A01 T10261069  RH  072%=      5-min Rain = 0
KARS 170714Z 33006KT M03/M07 A3011 RMK A01 T10261069  RH  072%=      5-min Rain = 0
KARS 170715Z 33006KT M03/M07 A3011 RMK A01 T10261070  RH  072%=      5-min Rain = 0
KARS 170716Z 33006KT M03/M07 A3011 RMK A01 T10271070  RH  072%=      5-min Rain = 0
KARS 170717Z 33006KT M03/M07 A3011 RMK A01 T10271070  RH  072%=      5-min Rain = 0
KARS 170718Z 34005KT M03/M07 A3011 RMK A01 T10281071  RH  073%=      5-min Rain = 0
KARS 170719Z 34005KT M03/M07 A3011 RMK A01 T10291071  RH  073%=      5-min Rain = 0
KARS 170720Z 34004KT M03/M07 A3011 RMK A01 T10301071  RH  074%=      5-min Rain = 0
KARS 170721Z 34005KT M03/M07 A3011 RMK A01 T10311070  RH  074%=      5-min Rain = 0
KARS 170722Z 34005KT M03/M07 A3011 RMK A01 T10311070  RH  074%=      5-min Rain = 0
KARS 170723Z 34005KT M03/M07 A3011 RMK A01 T10311070  RH  074%=      5-min Rain = 0
KARS 170724Z 34006KT M03/M07 A3011 RMK A01 T10311070  RH  074%=      5-min Rain = 0
KARS 170725Z 34005KT M03/M07 A3011 RMK A01 T10311070  RH  074%=      5-min Rain = 0
KARS 170726Z 34005KT M03/M07 A3011 RMK A01 T10301070  RH  074%=      5-min Rain = 0
KARS 170727Z 34005KT M03/M07 A3011 RMK A01 T10291070  RH  074%=      5-min Rain = 0
KARS 170728Z 33005KT M03/M07 A3012 RMK A01 T10291070  RH  073%=      5-min Rain = 0
KARS 170729Z 33006KT M03/M07 A3012 RMK A01 T10291071  RH  073%=      5-min Rain = 0
KARS 170730Z 33006KT M03/M07 A3012 RMK A01 T10291071  RH  073%=      5-min Rain = 0
KARS 170731Z 33006KT M03/M07 A3012 RMK A01 T10291071  RH  073%=      5-min Rain = 0
KARS 170732Z 33006KT M03/M07 A3012 RMK A01 T10291071  RH  073%=      5-min Rain = 0
KARS 170733Z 33006KT M03/M07 A3012 RMK A01 T10291071  RH  073%=      5-min Rain = 0
KARS 170734Z 33006KT M03/M07 A3012 RMK A01 T10291071  RH  073%=      5-min Rain = 0
KARS 170735Z 33006KT M03/M07 A3012 RMK A01 T10291071  RH  073%=      5-min Rain = 0
KARS 170736Z 32006KT M03/M07 A3012 RMK A01 T10291071  RH  073%=      5-min Rain = 0
KARS 170737Z 33006KT M03/M07 A3012 RMK A01 T10291071  RH  073%=      5-min Rain = 0
KARS 170738Z 33006KT M03/M07 A3012 RMK A01 T10301071  RH  073%=      5-min Rain = 0
KARS 170739Z 33006KT M03/M07 A3012 RMK A01 T10301071  RH  073%=      5-min Rain = 0
KARS 170740Z 33006KT M03/M07 A3012 RMK A01 T10311071  RH  074%=      5-min Rain = 0
KARS 170741Z 33006KT M03/M07 A3012 RMK A01 T10311071  RH  074%=      5-min Rain = 0
KARS 170742Z 33006KT M03/M07 A3012 RMK A01 T10321071  RH  074%=      5-min Rain = 0
KARS 170743Z 33006KT M03/M07 A3011 RMK A01 T10321071  RH  074%=      5-min Rain = 0
KARS 170744Z 33006KT M03/M07 A3011 RMK A01 T10321071  RH  074%=      5-min Rain = 0
KARS 170745Z 33006KT M03/M07 A3011 RMK A01 T10321071  RH  075%=      5-min Rain = 0
KARS 170746Z 33006KT M03/M07 A3011 RMK A01 T10321071  RH  075%=      5-min Rain = 0
KARS 170747Z 33006KT M03/M07 A3011 RMK A01 T10321071  RH  075%=      5-min Rain = 0
KARS 170748Z 33006KT M03/M07 A3011 RMK A01 T10321071  RH  075%=      5-min Rain = 0
KARS 170749Z 33006KT M03/M07 A3011 RMK A01 T10321070  RH  075%=      5-min Rain = 0
KARS 170750Z 32006KT M03/M07 A3011 RMK A01 T10311070  RH  074%=      5-min Rain = 0
KARS 170751Z 32006KT M03/M07 A3011 RMK A01 T10311070  RH  075%=      5-min Rain = 0
KARS 170752Z 32007KT M03/M07 A3011 RMK A01 T10311070  RH  074%=      5-min Rain = 0
KARS 170753Z 32007KT M03/M07 A3011 RMK A01 T10301069  RH  074%=      5-min Rain = 0
KARS 170754Z 32007KT M03/M07 A3011 RMK A01 T10291069  RH  074%=      5-min Rain = 0
KARS 170755Z 32007KT M03/M07 A3011 RMK A01 T10271068  RH  073%=      5-min Rain = 0
KARS 170756Z 32007KT M03/M07 A3011 RMK A01 T10251068  RH  072%=      5-min Rain = 0
KARS 170757Z 32007KT M02/M07 A3011 RMK A01 T10241068  RH  072%=      5-min Rain = 0
KARS 170758Z 32006KT M02/M07 A3011 RMK A01 T10231068  RH  071%=      5-min Rain = 0
KARS 170759Z 32006KT M02/M07 A3011 RMK A01 T10231069  RH  071%=      5-min Rain = 0
KARS 170800Z 32006KT M02/M07 A3011 RMK A01 T10231069  RH  071%=      5-min Rain = 0
KARS 170801Z 32006KT M02/M07 A3011 RMK A01 T10231069  RH  071%=      5-min Rain = 0
KARS 170802Z 32005KT M02/M07 A3011 RMK A01 T10241069  RH  071%=      5-min Rain = 0
KARS 170803Z 32005KT M03/M07 A3011 RMK A01 T10251069  RH  072%=      5-min Rain = 0
KARS 170804Z 32005KT M03/M07 A3011 RMK A01 T10251069  RH  072%=      5-min Rain = 0
KARS 170805Z 31005KT M03/M07 A3011 RMK A01 T10261069  RH  072%=      5-min Rain = 0
KARS 170806Z 32005KT M03/M07 A3011 RMK A01 T10271069  RH  073%=      5-min Rain = 0
KARS 170807Z 31005KT M03/M07 A3011 RMK A01 T10271069  RH  073%=      5-min Rain = 0
KARS 170808Z 31005KT M03/M07 A3011 RMK A01 T10271069  RH  073%=      5-min Rain = 0
KARS 170809Z 31005KT M03/M07 A3011 RMK A01 T10271069  RH  073%=      5-min Rain = 0
KARS 170810Z 31005KT M03/M07 A3011 RMK A01 T10261069  RH  072%=      5-min Rain = 0
KARS 170811Z 31005KT M03/M07 A3011 RMK A01 T10261069  RH  072%=      5-min Rain = 0
KARS 170812Z 31005KT M03/M07 A3012 RMK A01 T10261070  RH  072%=      5-min Rain = 0
KARS 170813Z 31005KT M03/M07 A3011 RMK A01 T10271070  RH  072%=      5-min Rain = 0
KARS 170814Z 31006KT M03/M07 A3011 RMK A01 T10281071  RH  072%=      5-min Rain = 0
KARS 170815Z 31006KT M03/M07 A3011 RMK A01 T10291070  RH  073%=      5-min Rain = 0
KARS 170816Z 31006KT M03/M07 A3011 RMK A01 T10291070  RH  073%=      5-min Rain = 0
KARS 170817Z 31006KT M03/M07 A3011 RMK A01 T10291070  RH  073%=      5-min Rain = 0
KARS 170818Z 31006KT M03/M07 A3011 RMK A01 T10291070  RH  073%=      5-min Rain = 0
KARS 170819Z 31006KT M03/M07 A3011 RMK A01 T10291070  RH  073%=      5-min Rain = 0
KARS 170820Z 31005KT M03/M07 A3011 RMK A01 T10291070  RH  073%=      5-min Rain = 0
KARS 170821Z 31005KT M03/M07 A3012 RMK A01 T10301071  RH  074%=      5-min Rain = 0
KARS 170822Z 31006KT M03/M07 A3011 RMK A01 T10311071  RH  074%=      5-min Rain = 0
KARS 170823Z 31006KT M03/M07 A3011 RMK A01 T10311071  RH  074%=      5-min Rain = 0
KARS 170824Z 31006KT M03/M07 A3011 RMK A01 T10311070  RH  074%=      5-min Rain = 0
KARS 170825Z 31006KT M03/M07 A3011 RMK A01 T10311070  RH  074%=      5-min Rain = 0
KARS 170826Z 31006KT M03/M07 A3011 RMK A01 T10311071  RH  074%=      5-min Rain = 0
KARS 170827Z 31006KT M03/M07 A3011 RMK A01 T10321071  RH  074%=      5-min Rain = 0
KARS 170828Z 31006KT M03/M07 A3011 RMK A01 T10321071  RH  075%=      5-min Rain = 0
KARS 170829Z 31006KT M03/M07 A3011 RMK A01 T10321071  RH  075%=      5-min Rain = 0
KARS 170830Z 31006KT M03/M07 A3011 RMK A01 T10321070  RH  075%=      5-min Rain = 0
KARS 170831Z 31006KT M03/M07 A3011 RMK A01 T10321070  RH  075%=      5-min Rain = 0
KARS 170832Z 31006KT M03/M07 A3011 RMK A01 T10321070  RH  075%=      5-min Rain = 0
KARS 170833Z 31006KT M03/M07 A3011 RMK A01 T10321070  RH  075%=      5-min Rain = 0
KARS 170834Z 31006KT M03/M07 A3011 RMK A01 T10321069  RH  076%=      5-min Rain = 0
KARS 170835Z 31006KT M03/M07 A3012 RMK A01 T10331070  RH  076%=      5-min Rain = 0
KARS 170836Z 31006KT M03/M07 A3012 RMK A01 T10331070  RH  076%=      5-min Rain = 0
KARS 170837Z 31006KT M03/M07 A3012 RMK A01 T10341069  RH  076%=      5-min Rain = 0
KARS 170838Z 31006KT M03/M07 A3012 RMK A01 T10341069  RH  076%=      5-min Rain = 0
KARS 170839Z 31006KT M03/M07 A3012 RMK A01 T10341069  RH  076%=      5-min Rain = 0
KARS 170840Z 31006KT M03/M07 A3012 RMK A01 T10341069  RH  076%=      5-min Rain = 0
KARS 170841Z 31005KT M03/M07 A3012 RMK A01 T10331069  RH  076%=      5-min Rain = 0
KARS 170842Z 31006KT M03/M07 A3012 RMK A01 T10321069  RH  076%=      5-min Rain = 0
KARS 170843Z 31006KT M03/M07 A3012 RMK A01 T10311069  RH  075%=      5-min Rain = 0
KARS 170844Z 31006KT M03/M07 A3012 RMK A01 T10311069  RH  075%=      5-min Rain = 0
KARS 170845Z 31006KT M03/M07 A3012 RMK A01 T10311069  RH  075%=      5-min Rain = 0
KARS 170846Z 31006KT M03/M07 A3012 RMK A01 T10311069  RH  075%=      5-min Rain = 0
KARS 170847Z 31006KT M03/M07 A3012 RMK A01 T10311070  RH  075%=      5-min Rain = 0
KARS 170848Z 31006KT M03/M07 A3012 RMK A01 T10321070  RH  075%=      5-min Rain = 0
KARS 170849Z 31006KT M03/M07 A3012 RMK A01 T10321069  RH  076%=      5-min Rain = 0
KARS 170850Z 31006KT M03/M07 A3012 RMK A01 T10321069  RH  076%=      5-min Rain = 0
KARS 170851Z 31006KT M03/M07 A3012 RMK A01 T10321068  RH  076%=      5-min Rain = 0
KARS 170852Z 31006KT M03/M07 A3012 RMK A01 T10311068  RH  076%=      5-min Rain = 0
KARS 170853Z 30006KT M03/M07 A3012 RMK A01 T10301067  RH  076%=      5-min Rain = 0
KARS 170854Z 30006KT M03/M07 A3012 RMK A01 T10301067  RH  075%=      5-min Rain = 0
KARS 170855Z 30006KT M03/M07 A3012 RMK A01 T10301067  RH  075%=      5-min Rain = 0
KARS 170856Z 30006KT M03/M07 A3012 RMK A01 T10311068  RH  076%=      5-min Rain = 0
KARS 170857Z 31005KT M03/M07 A3012 RMK A01 T10311068  RH  076%=      5-min Rain = 0
KARS 170858Z 31006KT M03/M07 A3012 RMK A01 T10311068  RH  076%=      5-min Rain = 0
KARS 170859Z 31006KT M03/M07 A3012 RMK A01 T10311068  RH  076%=      5-min Rain = 0
KARS 170900Z 31006KT M03/M07 A3012 RMK A01 T10301068  RH  075%=      5-min Rain = 0
KARS 170901Z 31006KT M03/M07 A3012 RMK A01 T10301068  RH  075%=      5-min Rain = 0
KARS 170902Z 31006KT M03/M07 A3012 RMK A01 T10311068  RH  075%=      5-min Rain = 0
KARS 170903Z 31006KT M03/M07 A3012 RMK A01 T10321069  RH  076%=      5-min Rain = 0
KARS 170904Z 31006KT M03/M07 A3012 RMK A01 T10341069  RH  077%=      5-min Rain = 0
KARS 170905Z 31006KT M04/M07 A3012 RMK A01 T10351069  RH  077%=      5-min Rain = 0
KARS 170906Z 31006KT M04/M07 A3012 RMK A01 T10361069  RH  078%=      5-min Rain = 0
KARS 170907Z 31006KT M04/M07 A3012 RMK A01 T10361069  RH  078%=      5-min Rain = 0
KARS 170908Z 31006KT M04/M07 A3012 RMK A01 T10361069  RH  078%=      5-min Rain = 0
KARS 170909Z 31006KT M04/M07 A3012 RMK A01 T10361069  RH  078%=      5-min Rain = 0
KARS 170910Z 31006KT M04/M07 A3012 RMK A01 T10371069  RH  078%=      5-min Rain = 0
KARS 170911Z 31006KT M04/M07 A3012 RMK A01 T10371069  RH  079%=      5-min Rain = 0
KARS 170912Z 31006KT M04/M07 A3012 RMK A01 T10371069  RH  079%=      5-min Rain = 0
KARS 170913Z 31006KT M04/M07 A3012 RMK A01 T10371069  RH  079%=      5-min Rain = 0
KARS 170914Z 31006KT M04/M07 A3012 RMK A01 T10371069  RH  079%=      5-min Rain = 0
KARS 170915Z 31006KT M04/M07 A3012 RMK A01 T10371069  RH  079%=      5-min Rain = 0
KARS 170916Z 31006KT M04/M07 A3012 RMK A01 T10361068  RH  078%=      5-min Rain = 0
KARS 170917Z 31006KT M04/M07 A3012 RMK A01 T10361068  RH  078%=      5-min Rain = 0
KARS 170918Z 31006KT M04/M07 A3012 RMK A01 T10361069  RH  078%=      5-min Rain = 0
KARS 170919Z 31006KT M04/M07 A3012 RMK A01 T10371069  RH  078%=      5-min Rain = 0
KARS 170920Z 31006KT M04/M07 A3012 RMK A01 T10381069  RH  079%=      5-min Rain = 0
KARS 170921Z 32005KT M04/M07 A3012 RMK A01 T10381069  RH  079%=      5-min Rain = 0
KARS 170922Z 32005KT M04/M07 A3011 RMK A01 T10391070  RH  079%=      5-min Rain = 0
KARS 170923Z 32005KT M04/M07 A3011 RMK A01 T10391070  RH  079%=      5-min Rain = 0
KARS 170924Z 32005KT M04/M07 A3011 RMK A01 T10401070  RH  080%=      5-min Rain = 0
KARS 170925Z 31005KT M04/M07 A3011 RMK A01 T10401070  RH  080%=      5-min Rain = 0
KARS 170926Z 31005KT M04/M07 A3011 RMK A01 T10401070  RH  080%=      5-min Rain = 0
KARS 170927Z 31005KT M04/M07 A3011 RMK A01 T10391069  RH  079%=      5-min Rain = 0
KARS 170928Z 31005KT M04/M07 A3011 RMK A01 T10371069  RH  079%=      5-min Rain = 0
KARS 170929Z 31005KT M04/M07 A3011 RMK A01 T10351069  RH  078%=      5-min Rain = 0
KARS 170930Z 31005KT M04/M07 A3011 RMK A01 T10351069  RH  077%=      5-min Rain = 0
KARS 170931Z 32005KT M03/M07 A3011 RMK A01 T10341069  RH  077%=      5-min Rain = 0
KARS 170932Z 32005KT M04/M07 A3011 RMK A01 T10351070  RH  077%=      5-min Rain = 0
KARS 170933Z 32005KT M04/M07 A3011 RMK A01 T10361070  RH  077%=      5-min Rain = 0
KARS 170934Z 32004KT M04/M07 A3011 RMK A01 T10371070  RH  078%=      5-min Rain = 0
KARS 170935Z 32005KT M04/M07 A3011 RMK A01 T10371069  RH  078%=      5-min Rain = 0
KARS 170936Z 32004KT M04/M07 A3011 RMK A01 T10371069  RH  079%=      5-min Rain = 0
KARS 170937Z 32004KT M04/M07 A3011 RMK A01 T10381070  RH  078%=      5-min Rain = 0
KARS 170938Z 32004KT M04/M07 A3011 RMK A01 T10391071  RH  078%=      5-min Rain = 0
KARS 170939Z 32004KT M04/M07 A3011 RMK A01 T10401070  RH  079%=      5-min Rain = 0
KARS 170940Z 32005KT M04/M07 A3011 RMK A01 T10401070  RH  080%=      5-min Rain = 0
KARS 170941Z 32005KT M04/M07 A3011 RMK A01 T10391069  RH  080%=      5-min Rain = 0
KARS 170942Z 32005KT M04/M07 A3011 RMK A01 T10381069  RH  079%=      5-min Rain = 0
KARS 170943Z 32004KT M04/M07 A3011 RMK A01 T10391070  RH  079%=      5-min Rain = 0
KARS 170944Z 32004KT M04/M07 A3011 RMK A01 T10401071  RH  079%=      5-min Rain = 0
KARS 170945Z 32005KT M04/M07 A3011 RMK A01 T10401071  RH  079%=      5-min Rain = 0
KARS 170946Z 32004KT M04/M07 A3011 RMK A01 T10401070  RH  080%=      5-min Rain = 0
KARS 170947Z 32004KT M04/M07 A3011 RMK A01 T10401070  RH  080%=      5-min Rain = 0
KARS 170948Z 31004KT M04/M07 A3011 RMK A01 T10401070  RH  080%=      5-min Rain = 0
KARS 170949Z 31004KT M04/M07 A3011 RMK A01 T10401070  RH  080%=      5-min Rain = 0
KARS 170950Z 31004KT M04/M07 A3011 RMK A01 T10401070  RH  080%=      5-min Rain = 0
KARS 170951Z 31004KT M04/M07 A3011 RMK A01 T10411070  RH  080%=      5-min Rain = 0
KARS 170952Z 31004KT M04/M07 A3011 RMK A01 T10411070  RH  080%=      5-min Rain = 0
KARS 170953Z 31005KT M04/M07 A3011 RMK A01 T10401070  RH  080%=      5-min Rain = 0
KARS 170954Z 31005KT M04/M07 A3011 RMK A01 T10391070  RH  079%=      5-min Rain = 0
KARS 170955Z 31005KT M04/M07 A3011 RMK A01 T10391070  RH  079%=      5-min Rain = 0
KARS 170956Z 32005KT M04/M07 A3011 RMK A01 T10391071  RH  078%=      5-min Rain = 0
KARS 170957Z 32005KT M04/M07 A3011 RMK A01 T10391071  RH  078%=      5-min Rain = 0
KARS 170958Z 32005KT M04/M07 A3011 RMK A01 T10391071  RH  078%=      5-min Rain = 0
KARS 170959Z 33005KT M04/M07 A3011 RMK A01 T10391071  RH  079%=      5-min Rain = 0
KARS 171000Z 33006KT M04/M07 A3011 RMK A01 T10391071  RH  079%=      5-min Rain = 0
KARS 171001Z 34006KT M04/M07 A3011 RMK A01 T10391071  RH  079%=      5-min Rain = 0
KARS 171002Z 34007KT M04/M07 A3011 RMK A01 T10401071  RH  079%=      5-min Rain = 0
KARS 171003Z 34007KT M04/M07 A3011 RMK A01 T10411072  RH  079%=      5-min Rain = 0
KARS 171004Z 34006KT M04/M07 A3011 RMK A01 T10421072  RH  080%=      5-min Rain = 0
KARS 171005Z 34006KT M04/M07 A3011 RMK A01 T10421072  RH  080%=      5-min Rain = 0
KARS 171006Z 34007KT M04/M07 A3011 RMK A01 T10421071  RH  080%=      5-min Rain = 0
KARS 171007Z 35007KT M04/M07 A3011 RMK A01 T10431072  RH  080%=      5-min Rain = 0
KARS 171008Z 35006KT M04/M07 A3011 RMK A01 T10441072  RH  081%=      5-min Rain = 0
KARS 171009Z 34006KT M04/M07 A3011 RMK A01 T10441072  RH  081%=      5-min Rain = 0
KARS 171010Z 34006KT M04/M07 A3011 RMK A01 T10431071  RH  081%=      5-min Rain = 0
KARS 171011Z 34006KT M04/M07 A3011 RMK A01 T10421071  RH  081%=      5-min Rain = 0
KARS 171012Z 34005KT M04/M07 A3011 RMK A01 T10421071  RH  080%=      5-min Rain = 0
KARS 171013Z 34006KT M04/M07 A3011 RMK A01 T10421071  RH  080%=      5-min Rain = 0
KARS 171014Z 34006KT M04/M07 A3011 RMK A01 T10421071  RH  081%=      5-min Rain = 0
KARS 171015Z 33006KT M04/M07 A3011 RMK A01 T10431071  RH  081%=      5-min Rain = 0
KARS 171016Z 34006KT M04/M07 A3011 RMK A01 T10431071  RH  081%=      5-min Rain = 0
KARS 171017Z 34007KT M04/M07 A3011 RMK A01 T10431071  RH  081%=      5-min Rain = 0
KARS 171018Z 34006KT M04/M07 A3011 RMK A01 T10431070  RH  081%=      5-min Rain = 0
KARS 171019Z 34007KT M04/M07 A3011 RMK A01 T10431070  RH  082%=      5-min Rain = 0
KARS 171020Z 34007KT M04/M07 A3011 RMK A01 T10431070  RH  082%=      5-min Rain = 0
KARS 171021Z 34007KT M04/M07 A3011 RMK A01 T10431070  RH  082%=      5-min Rain = 0
KARS 171022Z 34007KT M04/M07 A3011 RMK A01 T10421069  RH  082%=      5-min Rain = 0
KARS 171023Z 34008KT M04/M07 A3011 RMK A01 T10411068  RH  081%=      5-min Rain = 0
KARS 171024Z 34007KT M04/M07 A3011 RMK A01 T10391067  RH  081%=      5-min Rain = 0
KARS 171025Z 34007KT M04/M07 A3011 RMK A01 T10381067  RH  080%=      5-min Rain = 0
KARS 171026Z 34007KT M04/M07 A3011 RMK A01 T10381067  RH  080%=      5-min Rain = 0
KARS 171027Z 34007KT M04/M07 A3011 RMK A01 T10381068  RH  080%=      5-min Rain = 0
KARS 171028Z 34007KT M04/M07 A3011 RMK A01 T10381068  RH  080%=      5-min Rain = 0
KARS 171029Z 34008KT M04/M07 A3011 RMK A01 T10381067  RH  080%=      5-min Rain = 0
KARS 171030Z 33008KT M04/M07 A3011 RMK A01 T10381067  RH  080%=      5-min Rain = 0
KARS 171031Z 33007KT M04/M07 A3011 RMK A01 T10381067  RH  080%=      5-min Rain = 0
KARS 171032Z 33007KT M04/M07 A3011 RMK A01 T10371066  RH  080%=      5-min Rain = 0
KARS 171033Z 34008KT M04/M07 A3011 RMK A01 T10371066  RH  080%=      5-min Rain = 0
KARS 171034Z 34008KT M04/M07 A3011 RMK A01 T10371067  RH  080%=      5-min Rain = 0
KARS 171035Z 34008KT M04/M07 A3011 RMK A01 T10371066  RH  080%=      5-min Rain = 0
KARS 171036Z 34008KT M04/M07 A3011 RMK A01 T10361066  RH  080%=      5-min Rain = 0
KARS 171037Z 34008KT M04/M07 A3011 RMK A01 T10351065  RH  080%=      5-min Rain = 0
KARS 171038Z 34008KT M03/M07 A3011 RMK A01 T10341065  RH  080%=      5-min Rain = 0
KARS 171039Z 35008KT M03/M07 A3011 RMK A01 T10341065  RH  079%=      5-min Rain = 0
KARS 171040Z 35008KT M03/M06 A3011 RMK A01 T10341064  RH  079%=      5-min Rain = 0
KARS 171041Z 35008KT M03/M06 A3011 RMK A01 T10331064  RH  079%=      5-min Rain = 0
KARS 171042Z 35008KT M03/M06 A3011 RMK A01 T10331064  RH  079%=      5-min Rain = 0
KARS 171043Z 35008KT M03/M06 A3011 RMK A01 T10331064  RH  079%=      5-min Rain = 0
KARS 171044Z 35008KT M03/M06 A3011 RMK A01 T10331064  RH  079%=      5-min Rain = 0
KARS 171045Z 35009KT M03/M06 A3011 RMK A01 T10331064  RH  079%=      5-min Rain = 0
KARS 171046Z 35009KT M03/M06 A3011 RMK A01 T10331064  RH  079%=      5-min Rain = 0
KARS 171047Z 35008KT M03/M06 A3011 RMK A01 T10341064  RH  079%=      5-min Rain = 0
KARS 171048Z 35008KT M03/M06 A3011 RMK A01 T10341064  RH  080%=      5-min Rain = 0
KARS 171049Z 35009KT M03/M06 A3011 RMK A01 T10341064  RH  080%=      5-min Rain = 0
KARS 171050Z 35008KT M03/M06 A3011 RMK A01 T10341064  RH  080%=      5-min Rain = 0
KARS 171051Z 35008KT M03/M06 A3011 RMK A01 T10341063  RH  080%=      5-min Rain = 0
KARS 171052Z 35008KT M03/M06 A3011 RMK A01 T10341063  RH  080%=      5-min Rain = 0
KARS 171053Z 35008KT M03/M06 A3011 RMK A01 T10341063  RH  080%=      5-min Rain = 0
KARS 171054Z 35008KT M03/M06 A3011 RMK A01 T10341063  RH  080%=      5-min Rain = 0
KARS 171055Z 35008KT M03/M06 A3011 RMK A01 T10341063  RH  080%=      5-min Rain = 0
KARS 171056Z 35008KT M03/M06 A3011 RMK A01 T10341063  RH  081%=      5-min Rain = 0
KARS 171057Z 35008KT M03/M06 A3011 RMK A01 T10341062  RH  081%=      5-min Rain = 0
KARS 171058Z 35008KT M03/M06 A3011 RMK A01 T10341062  RH  081%=      5-min Rain = 0
KARS 171059Z 35008KT M03/M06 A3011 RMK A01 T10341062  RH  081%=      5-min Rain = 0
KARS 171100Z 35009KT M03/M06 A3011 RMK A01 T10341062  RH  081%=      5-min Rain = 0
KARS 171101Z 35008KT M03/M06 A3011 RMK A01 T10341061  RH  081%=      5-min Rain = 0
KARS 171102Z 35008KT M03/M06 A3011 RMK A01 T10331061  RH  081%=      5-min Rain = 0
KARS 171103Z 35008KT M03/M06 A3011 RMK A01 T10331060  RH  082%=      5-min Rain = 0
KARS 171104Z 35009KT M03/M06 A3011 RMK A01 T10321059  RH  081%=      5-min Rain = 0
KARS 171105Z 35009KT M03/M06 A3011 RMK A01 T10311059  RH  081%=      5-min Rain = 0
KARS 171106Z 35009KT M03/M06 A3011 RMK A01 T10311059  RH  081%=      5-min Rain = 0
KARS 171107Z 35009KT M03/M06 A3011 RMK A01 T10311059  RH  081%=      5-min Rain = 0
KARS 171108Z 35009KT M03/M06 A3011 RMK A01 T10311059  RH  081%=      5-min Rain = 0
KARS 171109Z 35009KT M03/M06 A3011 RMK A01 T10321060  RH  081%=      5-min Rain = 0
KARS 171110Z 35009KT M03/M06 A3011 RMK A01 T10321060  RH  081%=      5-min Rain = 0
KARS 171111Z 35010KT M03/M06 A3011 RMK A01 T10321059  RH  081%=      5-min Rain = 0
KARS 171112Z 35010KT M03/M06 A3011 RMK A01 T10321059  RH  081%=      5-min Rain = 0
KARS 171113Z 35010KT M03/M06 A3011 RMK A01 T10321059  RH  081%=      5-min Rain = 0
KARS 171114Z 35010KT M03/M06 A3011 RMK A01 T10321059  RH  081%=      5-min Rain = 0
KARS 171115Z 35010KT M03/M06 A3011 RMK A01 T10321059  RH  081%=      5-min Rain = 0
KARS 171116Z 35010KT M03/M06 A3011 RMK A01 T10321059  RH  082%=      5-min Rain = 0
KARS 171117Z 35010KT M03/M06 A3011 RMK A01 T10321059  RH  082%=      5-min Rain = 0
KARS 171118Z 35010KT M03/M06 A3011 RMK A01 T10331059  RH  082%=      5-min Rain = 0
KARS 171119Z 35010KT M03/M06 A3011 RMK A01 T10331059  RH  082%=      5-min Rain = 0
KARS 171120Z 35010KT M03/M06 A3011 RMK A01 T10331059  RH  082%=      5-min Rain = 0
KARS 171121Z 35010KT M03/M06 A3011 RMK A01 T10331059  RH  082%=      5-min Rain = 0
KARS 171122Z 35010KT M03/M06 A3011 RMK A01 T10331059  RH  082%=      5-min Rain = 0
KARS 171123Z 35010KT M03/M06 A3012 RMK A01 T10331059  RH  082%=      5-min Rain = 0
KARS 171124Z 35010KT M03/M06 A3012 RMK A01 T10341059  RH  082%=      5-min Rain = 0
KARS 171125Z 35011KT M03/M06 A3012 RMK A01 T10341059  RH  083%=      5-min Rain = 0
KARS 171126Z 35011KT M03/M06 A3012 RMK A01 T10341059  RH  083%=      5-min Rain = 0
KARS 171127Z 35011KT M03/M06 A3012 RMK A01 T10331059  RH  083%=      5-min Rain = 0
KARS 171128Z 35011KT M03/M06 A3012 RMK A01 T10331059  RH  082%=      5-min Rain = 0
KARS 171129Z 35011KT M03/M06 A3012 RMK A01 T10331059  RH  082%=      5-min Rain = 0
KARS 171130Z 35010KT M03/M06 A3012 RMK A01 T10331059  RH  082%=      5-min Rain = 0
KARS 171131Z 35010KT M03/M06 A3012 RMK A01 T10331060  RH  082%=      5-min Rain = 0
KARS 171132Z 35011KT M03/M06 A3012 RMK A01 T10341060  RH  082%=      5-min Rain = 0
KARS 171133Z 35011KT M03/M06 A3012 RMK A01 T10341060  RH  082%=      5-min Rain = 0
KARS 171134Z 35010KT M03/M06 A3012 RMK A01 T10341060  RH  083%=      5-min Rain = 0
KARS 171135Z 36011KT M03/M06 A3012 RMK A01 T10341060  RH  083%=      5-min Rain = 0
KARS 171136Z 36010KT M03/M06 A3012 RMK A01 T10341060  RH  082%=      5-min Rain = 0
KARS 171137Z 36010KT M03/M06 A3012 RMK A01 T10341060  RH  082%=      5-min Rain = 0
KARS 171138Z 36010KT M03/M06 A3012 RMK A01 T10341060  RH  082%=      5-min Rain = 0
KARS 171139Z 36010KT M03/M06 A3012 RMK A01 T10341060  RH  082%=      5-min Rain = 0
KARS 171140Z 36011KT M04/M06 A3012 RMK A01 T10351060  RH  082%=      5-min Rain = 0
KARS 171141Z 36010KT M03/M06 A3012 RMK A01 T10341060  RH  082%=      5-min Rain = 0
KARS 171142Z 36010KT M03/M06 A3012 RMK A01 T10341060  RH  082%=      5-min Rain = 0
KARS 171143Z 36010KT M03/M06 A3012 RMK A01 T10341060  RH  082%=      5-min Rain = 0
KARS 171144Z 36010KT M03/M06 A3012 RMK A01 T10341060  RH  082%=      5-min Rain = 0
KARS 171145Z 36009KT M03/M06 A3012 RMK A01 T10341060  RH  082%=      5-min Rain = 0
KARS 171146Z 36009KT M03/M06 A3012 RMK A01 T10341060  RH  082%=      5-min Rain = 0
KARS 171147Z 36009KT M03/M06 A3012 RMK A01 T10341060  RH  082%=      5-min Rain = 0
KARS 171148Z 36009KT M03/M06 A3012 RMK A01 T10341060  RH  082%=      5-min Rain = 0
KARS 171149Z 36009KT M03/M06 A3012 RMK A01 T10341060  RH  082%=      5-min Rain = 0
KARS 171150Z 00009KT M03/M06 A3012 RMK A01 T10341060  RH  082%=      5-min Rain = 0
KARS 171151Z 00009KT M03/M06 A3012 RMK A01 T10341060  RH  082%=      5-min Rain = 0
KARS 171152Z 36009KT M03/M06 A3012 RMK A01 T10341060  RH  082%=      5-min Rain = 0
KARS 171153Z 00009KT M03/M06 A3012 RMK A01 T10341060  RH  082%=      5-min Rain = 0
KARS 171154Z 36009KT M03/M06 A3012 RMK A01 T10341060  RH  082%=      5-min Rain = 0
KARS 171155Z 00008KT M03/M06 A3012 RMK A01 T10341060  RH  082%=      5-min Rain = 0
KARS 171156Z 36008KT M03/M06 A3012 RMK A01 T10341060  RH  082%=      5-min Rain = 0
KARS 171157Z 00008KT M03/M06 A3012 RMK A01 T10341060  RH  082%=      5-min Rain = 0
KARS 171158Z 00008KT M03/M06 A3012 RMK A01 T10341060  RH  082%=      5-min Rain = 0
KARS 171159Z 00008KT M03/M06 A3012 RMK A01 T10341060  RH  082%=      5-min Rain = 0
KARS 171200Z 36008KT M03/M06 A3012 RMK A01 T10341060  RH  082%=      5-min Rain = 0
KARS 171201Z 00008KT M03/M06 A3012 RMK A01 T10341060  RH  082%=      5-min Rain = 0
KARS 171202Z 00008KT M03/M06 A3012 RMK A01 T10341060  RH  082%=      5-min Rain = 0
KARS 171203Z 00009KT M03/M06 A3012 RMK A01 T10341060  RH  082%=      5-min Rain = 0
KARS 171204Z 00009KT M03/M06 A3012 RMK A01 T10341061  RH  082%=      5-min Rain = 0
KARS 171205Z 00009KT M04/M06 A3012 RMK A01 T10351061  RH  082%=      5-min Rain = 0
KARS 171206Z 00009KT M04/M06 A3012 RMK A01 T10351061  RH  082%=      5-min Rain = 0
KARS 171207Z 00008KT M04/M06 A3012 RMK A01 T10351061  RH  082%=      5-min Rain = 0
KARS 171208Z 00008KT M04/M06 A3012 RMK A01 T10361061  RH  082%=      5-min Rain = 0
KARS 171209Z 00008KT M04/M06 A3012 RMK A01 T10361062  RH  082%=      5-min Rain = 0
KARS 171210Z 00008KT M04/M06 A3012 RMK A01 T10371062  RH  083%=      5-min Rain = 0
KARS 171211Z 36008KT M04/M06 A3012 RMK A01 T10371062  RH  083%=      5-min Rain = 0
KARS 171212Z 00008KT M04/M06 A3013 RMK A01 T10371062  RH  083%=      5-min Rain = 0
KARS 171213Z 01008KT M04/M06 A3013 RMK A01 T10371062  RH  083%=      5-min Rain = 0
KARS 171214Z 00007KT M04/M06 A3013 RMK A01 T10381063  RH  083%=      5-min Rain = 0
KARS 171215Z 00007KT M04/M06 A3013 RMK A01 T10381063  RH  083%=      5-min Rain = 0
KARS 171216Z 00007KT M04/M06 A3013 RMK A01 T10391064  RH  083%=      5-min Rain = 0
KARS 171217Z 00007KT M04/M06 A3013 RMK A01 T10391064  RH  083%=      5-min Rain = 0
KARS 171218Z 00007KT M04/M06 A3013 RMK A01 T10401064  RH  083%=      5-min Rain = 0
KARS 171219Z 36007KT M04/M06 A3013 RMK A01 T10401064  RH  083%=      5-min Rain = 0
KARS 171220Z 36007KT M04/M06 A3013 RMK A01 T10401064  RH  084%=      5-min Rain = 0
KARS 171221Z 00007KT M04/M06 A3013 RMK A01 T10401064  RH  084%=      5-min Rain = 0
KARS 171222Z 00007KT M04/M06 A3013 RMK A01 T10401064  RH  084%=      5-min Rain = 0
KARS 171223Z 00007KT M04/M06 A3013 RMK A01 T10401064  RH  084%=      5-min Rain = 0
KARS 171224Z 00007KT M04/M06 A3013 RMK A01 T10401064  RH  084%=      5-min Rain = 0
KARS 171225Z 00007KT M04/M06 A3013 RMK A01 T10401064  RH  084%=      5-min Rain = 0
KARS 171226Z 00007KT M04/M06 A3013 RMK A01 T10401064  RH  083%=      5-min Rain = 0
KARS 171227Z 00007KT M04/M07 A3013 RMK A01 T10401065  RH  083%=      5-min Rain = 0
KARS 171228Z 00007KT M04/M07 A3013 RMK A01 T10411065  RH  083%=      5-min Rain = 0
KARS 171229Z 36007KT M04/M06 A3013 RMK A01 T10411064  RH  084%=      5-min Rain = 0
KARS 171230Z 00007KT M04/M06 A3013 RMK A01 T10411064  RH  084%=      5-min Rain = 0
KARS 171231Z 01007KT M04/M07 A3013 RMK A01 T10411065  RH  083%=      5-min Rain = 0
KARS 171232Z 00007KT M04/M07 A3013 RMK A01 T10411065  RH  083%=      5-min Rain = 0
KARS 171233Z 00007KT M04/M07 A3013 RMK A01 T10411065  RH  083%=      5-min Rain = 0
KARS 171234Z 00008KT M04/M07 A3013 RMK A01 T10411065  RH  083%=      5-min Rain = 0
KARS 171235Z 00008KT M04/M07 A3013 RMK A01 T10421066  RH  083%=      5-min Rain = 0
KARS 171236Z 00008KT M04/M07 A3013 RMK A01 T10421066  RH  083%=      5-min Rain = 0
KARS 171237Z 00008KT M04/M07 A3013 RMK A01 T10421066  RH  084%=      5-min Rain = 0
KARS 171238Z 00008KT M04/M07 A3013 RMK A01 T10421066  RH  084%=      5-min Rain = 0
KARS 171239Z 00008KT M04/M07 A3013 RMK A01 T10421066  RH  084%=      5-min Rain = 0
KARS 171240Z 00007KT M04/M07 A3013 RMK A01 T10421066  RH  084%=      5-min Rain = 0
KARS 171241Z 00007KT M04/M07 A3013 RMK A01 T10421066  RH  084%=      5-min Rain = 0
KARS 171242Z 00008KT M04/M07 A3013 RMK A01 T10421066  RH  084%=      5-min Rain = 0
KARS 171243Z 00008KT M04/M07 A3013 RMK A01 T10421066  RH  084%=      5-min Rain = 0
KARS 171244Z 00008KT M04/M07 A3013 RMK A01 T10421066  RH  084%=      5-min Rain = 0
KARS 171245Z 00007KT M04/M07 A3013 RMK A01 T10421066  RH  084%=      5-min Rain = 0
KARS 171246Z 00007KT M04/M07 A3013 RMK A01 T10421065  RH  084%=      5-min Rain = 0
KARS 171247Z 00007KT M04/M07 A3013 RMK A01 T10421066  RH  084%=      5-min Rain = 0
KARS 171248Z 00007KT M04/M07 A3014 RMK A01 T10421065  RH  084%=      5-min Rain = 0
KARS 171249Z 36007KT M04/M07 A3014 RMK A01 T10421065  RH  084%=      5-min Rain = 0
KARS 171250Z 36007KT M04/M07 A3014 RMK A01 T10421066  RH  084%=      5-min Rain = 0
KARS 171251Z 36008KT M04/M07 A3014 RMK A01 T10421066  RH  084%=      5-min Rain = 0
KARS 171252Z 36008KT M04/M07 A3014 RMK A01 T10421066  RH  084%=      5-min Rain = 0
KARS 171253Z 36008KT M04/M07 A3014 RMK A01 T10421066  RH  084%=      5-min Rain = 0
KARS 171254Z 36008KT M04/M07 A3014 RMK A01 T10421066  RH  084%=      5-min Rain = 0
KARS 171255Z 36008KT M04/M07 A3014 RMK A01 T10421066  RH  084%=      5-min Rain = 0
KARS 171256Z 36008KT M04/M07 A3014 RMK A01 T10421066  RH  084%=      5-min Rain = 0
KARS 171257Z 36008KT M04/M07 A3014 RMK A01 T10421066  RH  084%=      5-min Rain = 0
KARS 171258Z 36008KT M04/M07 A3014 RMK A01 T10431066  RH  084%=      5-min Rain = 0
KARS 171259Z 36008KT M04/M07 A3014 RMK A01 T10431067  RH  084%=      5-min Rain = 0
KARS 171300Z 36008KT M04/M07 A3014 RMK A01 T10431067  RH  084%=      5-min Rain = 0
KARS 171301Z 35008KT M04/M07 A3014 RMK A01 T10441067  RH  084%=      5-min Rain = 0
KARS 171302Z 36008KT M04/M07 A3015 RMK A01 T10441067  RH  084%=      5-min Rain = 0
KARS 171303Z 35008KT M04/M07 A3015 RMK A01 T10441068  RH  084%=      5-min Rain = 0
KARS 171304Z 36008KT M04/M07 A3015 RMK A01 T10441068  RH  084%=      5-min Rain = 0
KARS 171305Z 36008KT M05/M07 A3015 RMK A01 T10451068  RH  084%=      5-min Rain = 0
KARS 171306Z 36007KT M05/M07 A3015 RMK A01 T10451068  RH  084%=      5-min Rain = 0
KARS 171307Z 36007KT M05/M07 A3015 RMK A01 T10451068  RH  084%=      5-min Rain = 0
KARS 171308Z 35007KT M05/M07 A3015 RMK A01 T10451068  RH  084%=      5-min Rain = 0
KARS 171309Z 35007KT M05/M07 A3015 RMK A01 T10451068  RH  084%=      5-min Rain = 0
KARS 171310Z 35007KT M05/M07 A3015 RMK A01 T10451068  RH  084%=      5-min Rain = 0
KARS 171311Z 36007KT M05/M07 A3015 RMK A01 T10451068  RH  084%=      5-min Rain = 0
KARS 171312Z 35007KT M05/M07 A3015 RMK A01 T10451068  RH  084%=      5-min Rain = 0
KARS 171313Z 35008KT M05/M07 A3015 RMK A01 T10451068  RH  084%=      5-min Rain = 0
KARS 171314Z 35008KT M05/M07 A3015 RMK A01 T10451068  RH  084%=      5-min Rain = 0
KARS 171315Z 35008KT M05/M07 A3015 RMK A01 T10451068  RH  084%=      5-min Rain = 0
KARS 171316Z 35008KT M05/M07 A3015 RMK A01 T10451068  RH  084%=      5-min Rain = 0
KARS 171317Z 35008KT M05/M07 A3015 RMK A01 T10451068  RH  084%=      5-min Rain = 0
KARS 171318Z 35008KT M05/M07 A3015 RMK A01 T10451068  RH  084%=      5-min Rain = 0
KARS 171319Z 35008KT M05/M07 A3015 RMK A01 T10451068  RH  084%=      5-min Rain = 0
KARS 171320Z 35008KT M04/M07 A3015 RMK A01 T10441068  RH  084%=      5-min Rain = 0
KARS 171321Z 35008KT M04/M07 A3015 RMK A01 T10441068  RH  084%=      5-min Rain = 0
KARS 171322Z 35008KT M04/M07 A3015 RMK A01 T10441068  RH  084%=      5-min Rain = 0
KARS 171323Z 35007KT M04/M07 A3015 RMK A01 T10441067  RH  084%=      5-min Rain = 0
KARS 171324Z 35007KT M04/M07 A3015 RMK A01 T10441068  RH  083%=      5-min Rain = 0
KARS 171325Z 35007KT M04/M07 A3015 RMK A01 T10441068  RH  083%=      5-min Rain = 0
KARS 171326Z 35007KT M04/M07 A3015 RMK A01 T10441068  RH  084%=      5-min Rain = 0
KARS 171327Z 35007KT M04/M07 A3015 RMK A01 T10441067  RH  084%=      5-min Rain = 0
KARS 171328Z 35007KT M04/M07 A3015 RMK A01 T10441068  RH  084%=      5-min Rain = 0
KARS 171329Z 35007KT M04/M07 A3015 RMK A01 T10441068  RH  083%=      5-min Rain = 0
KARS 171330Z 35007KT M04/M07 A3015 RMK A01 T10441068  RH  083%=      5-min Rain = 0
KARS 171331Z 35007KT M04/M07 A3015 RMK A01 T10431068  RH  083%=      5-min Rain = 0
KARS 171332Z 35007KT M04/M07 A3015 RMK A01 T10431068  RH  083%=      5-min Rain = 0
KARS 171333Z 35007KT M04/M07 A3015 RMK A01 T10441068  RH  083%=      5-min Rain = 0
KARS 171334Z 35008KT M04/M07 A3015 RMK A01 T10441068  RH  083%=      5-min Rain = 0
KARS 171335Z 35008KT M04/M07 A3015 RMK A01 T10441068  RH  083%=      5-min Rain = 0
KARS 171336Z 35009KT M04/M07 A3016 RMK A01 T10441068  RH  083%=      5-min Rain = 0
KARS 171337Z 35009KT M05/M07 A3016 RMK A01 T10451069  RH  083%=      5-min Rain = 0
KARS 171338Z 36008KT M05/M07 A3015 RMK A01 T10451069  RH  084%=      5-min Rain = 0
KARS 171339Z 35008KT M05/M07 A3015 RMK A01 T10451069  RH  084%=      5-min Rain = 0
KARS 171340Z 36008KT M05/M07 A3016 RMK A01 T10451069  RH  084%=      5-min Rain = 0
KARS 171341Z 35008KT M05/M07 A3016 RMK A01 T10451069  RH  083%=      5-min Rain = 0
KARS 171342Z 36008KT M05/M07 A3016 RMK A01 T10451069  RH  083%=      5-min Rain = 0
KARS 171343Z 36008KT M05/M07 A3016 RMK A01 T10451069  RH  083%=      5-min Rain = 0
KARS 171344Z 36007KT M05/M07 A3015 RMK A01 T10451069  RH  083%=      5-min Rain = 0
KARS 171345Z 36007KT M05/M07 A3015 RMK A01 T10451069  RH  083%=      5-min Rain = 0
KARS 171346Z 35007KT M05/M07 A3015 RMK A01 T10451069  RH  083%=      5-min Rain = 0
KARS 171347Z 35006KT M05/M07 A3015 RMK A01 T10451069  RH  083%=      5-min Rain = 0
KARS 171348Z 36007KT M05/M07 A3015 RMK A01 T10451069  RH  083%=      5-min Rain = 0
KARS 171349Z 36007KT M05/M07 A3015 RMK A01 T10451069  RH  083%=      5-min Rain = 0
KARS 171350Z 36006KT M05/M07 A3015 RMK A01 T10451069  RH  083%=      5-min Rain = 0
KARS 171351Z 36007KT M05/M07 A3015 RMK A01 T10451070  RH  083%=      5-min Rain = 0
KARS 171352Z 36007KT M05/M07 A3015 RMK A01 T10451070  RH  083%=      5-min Rain = 0
KARS 171353Z 36007KT M05/M07 A3015 RMK A01 T10451070  RH  083%=      5-min Rain = 0
KARS 171354Z 36007KT M05/M07 A3015 RMK A01 T10451070  RH  083%=      5-min Rain = 0
KARS 171355Z 35007KT M05/M07 A3015 RMK A01 T10451070  RH  083%=      5-min Rain = 0
KARS 171356Z 35007KT M05/M07 A3015 RMK A01 T10451070  RH  083%=      5-min Rain = 0
KARS 171357Z 36006KT M05/M07 A3016 RMK A01 T10461070  RH  083%=      5-min Rain = 0
KARS 171358Z 36006KT M05/M07 A3016 RMK A01 T10461070  RH  083%=      5-min Rain = 0
KARS 171359Z 35006KT M05/M07 A3016 RMK A01 T10461070  RH  083%=      5-min Rain = 0
KARS 171400Z 35006KT M05/M07 A3016 RMK A01 T10461070  RH  083%=      5-min Rain = 0
KARS 171401Z 35006KT M05/M07 A3016 RMK A01 T10461070  RH  083%=      5-min Rain = 0
KARS 171402Z 35005KT M05/M07 A3016 RMK A01 T10461070  RH  083%=      5-min Rain = 0
KARS 171403Z 36005KT M05/M07 A3016 RMK A01 T10461071  RH  083%=      5-min Rain = 0
KARS 171404Z 35005KT M05/M07 A3016 RMK A01 T10461071  RH  083%=      5-min Rain = 0
KARS 171405Z 36005KT M05/M07 A3016 RMK A01 T10461071  RH  083%=      5-min Rain = 0
KARS 171406Z 35006KT M05/M07 A3017 RMK A01 T10461070  RH  083%=      5-min Rain = 0
KARS 171407Z 36006KT M05/M07 A3017 RMK A01 T10451070  RH  083%=      5-min Rain = 0
KARS 171408Z 35006KT M05/M07 A3017 RMK A01 T10451070  RH  082%=      5-min Rain = 0
KARS 171409Z 35007KT M04/M07 A3017 RMK A01 T10441070  RH  082%=      5-min Rain = 0
KARS 171410Z 35006KT M04/M07 A3017 RMK A01 T10441070  RH  082%=      5-min Rain = 0
KARS 171411Z 35006KT M04/M07 A3017 RMK A01 T10441070  RH  082%=      5-min Rain = 0
KARS 171412Z 35006KT M04/M07 A3017 RMK A01 T10441069  RH  082%=      5-min Rain = 0
KARS 171413Z 35006KT M04/M07 A3017 RMK A01 T10441069  RH  082%=      5-min Rain = 0
KARS 171414Z 35006KT M04/M07 A3017 RMK A01 T10431069  RH  082%=      5-min Rain = 0
KARS 171415Z 35006KT M04/M07 A3017 RMK A01 T10431069  RH  082%=      5-min Rain = 0
KARS 171416Z 35007KT M04/M07 A3017 RMK A01 T10431069  RH  082%=      5-min Rain = 0
KARS 171417Z 35007KT M04/M07 A3017 RMK A01 T10431069  RH  083%=      5-min Rain = 0
KARS 171418Z 35006KT M04/M07 A3017 RMK A01 T10431068  RH  082%=      5-min Rain = 0
KARS 171419Z 35006KT M04/M07 A3017 RMK A01 T10431069  RH  082%=      5-min Rain = 0
KARS 171420Z 34006KT M04/M07 A3017 RMK A01 T10421068  RH  082%=      5-min Rain = 0
KARS 171421Z 34006KT M04/M07 A3017 RMK A01 T10421068  RH  082%=      5-min Rain = 0
KARS 171422Z 34006KT M04/M07 A3017 RMK A01 T10421068  RH  082%=      5-min Rain = 0
KARS 171423Z 34005KT M04/M07 A3017 RMK A01 T10421067  RH  082%=      5-min Rain = 0
KARS 171424Z 34005KT M04/M07 A3017 RMK A01 T10411067  RH  082%=      5-min Rain = 0
KARS 171425Z 34005KT M04/M07 A3017 RMK A01 T10411067  RH  082%=      5-min Rain = 0
KARS 171426Z 34005KT M04/M07 A3017 RMK A01 T10401066  RH  082%=      5-min Rain = 0
KARS 171427Z 34005KT M04/M07 A3017 RMK A01 T10401066  RH  082%=      5-min Rain = 0
KARS 171428Z 34004KT M04/M07 A3017 RMK A01 T10391065  RH  082%=      5-min Rain = 0
KARS 171429Z 35005KT M04/M07 A3017 RMK A01 T10391065  RH  082%=      5-min Rain = 0
KARS 171430Z 35005KT M04/M07 A3017 RMK A01 T10381065  RH  082%=      5-min Rain = 0
KARS 171431Z 35005KT M04/M07 A3017 RMK A01 T10381065  RH  082%=      5-min Rain = 0
KARS 171432Z 34006KT M04/M06 A3017 RMK A01 T10371064  RH  082%=      5-min Rain = 0
KARS 171433Z 34006KT M04/M06 A3017 RMK A01 T10371064  RH  081%=      5-min Rain = 0
KARS 171434Z 34006KT M04/M06 A3017 RMK A01 T10361064  RH  082%=      5-min Rain = 0
KARS 171435Z 35006KT M04/M06 A3017 RMK A01 T10361063  RH  082%=      5-min Rain = 0
KARS 171436Z 35006KT M04/M06 A3017 RMK A01 T10361063  RH  082%=      5-min Rain = 0
KARS 171437Z 35006KT M04/M06 A3017 RMK A01 T10361063  RH  081%=      5-min Rain = 0
KARS 171438Z 35006KT M04/M06 A3017 RMK A01 T10351064  RH  081%=      5-min Rain = 0
KARS 171439Z 35007KT M04/M06 A3017 RMK A01 T10351063  RH  081%=      5-min Rain = 0
KARS 171440Z 35007KT M03/M06 A3017 RMK A01 T10341063  RH  081%=      5-min Rain = 0
KARS 171441Z 35007KT M03/M06 A3017 RMK A01 T10341063  RH  081%=      5-min Rain = 0
KARS 171442Z 35007KT M03/M06 A3017 RMK A01 T10341062  RH  081%=      5-min Rain = 0
KARS 171443Z 35007KT M03/M06 A3017 RMK A01 T10331062  RH  081%=      5-min Rain = 0
KARS 171444Z 35007KT M03/M06 A3017 RMK A01 T10331062  RH  080%=      5-min Rain = 0
KARS 171445Z 35006KT M03/M06 A3017 RMK A01 T10331062  RH  080%=      5-min Rain = 0
KARS 171446Z 35006KT M03/M06 A3017 RMK A01 T10321062  RH  080%=      5-min Rain = 0
KARS 171447Z 35005KT M03/M06 A3017 RMK A01 T10321061  RH  080%=      5-min Rain = 0
KARS 171448Z 35006KT M03/M06 A3017 RMK A01 T10311061  RH  080%=      5-min Rain = 0
KARS 171449Z 35005KT M03/M06 A3017 RMK A01 T10311062  RH  079%=      5-min Rain = 0
KARS 171450Z 36005KT M03/M06 A3017 RMK A01 T10301061  RH  079%=      5-min Rain = 0
KARS 171451Z 36005KT M03/M06 A3017 RMK A01 T10291060  RH  079%=      5-min Rain = 0
KARS 171452Z 36005KT M03/M06 A3017 RMK A01 T10281059  RH  079%=      5-min Rain = 0
KARS 171453Z 36005KT M03/M06 A3017 RMK A01 T10271058  RH  079%=      5-min Rain = 0
KARS 171454Z 36005KT M03/M06 A3017 RMK A01 T10271059  RH  078%=      5-min Rain = 0
KARS 171455Z 36005KT M03/M06 A3017 RMK A01 T10261056  RH  080%=      5-min Rain = 0
KARS 171456Z 36005KT M03/M06 A3017 RMK A01 T10251055  RH  080%=      5-min Rain = 0
KARS 171457Z 35005KT M02/M06 A3017 RMK A01 T10241056  RH  079%=      5-min Rain = 0
KARS 171458Z 36005KT M02/M06 A3017 RMK A01 T10241059  RH  077%=      5-min Rain = 0
KARS 171459Z 36005KT M02/M06 A3017 RMK A01 T10231058  RH  077%=      5-min Rain = 0
KARS 171500Z 36005KT M02/M06 A3017 RMK A01 T10231056  RH  078%=      5-min Rain = 0
KARS 171501Z 00005KT M02/M06 A3017 RMK A01 T10221057  RH  077%=      5-min Rain = 0
KARS 171502Z 00005KT M02/M06 A3017 RMK A01 T10221057  RH  077%=      5-min Rain = 0
KARS 171503Z 00005KT M02/M06 A3017 RMK A01 T10211057  RH  076%=      5-min Rain = 0
KARS 171504Z 00005KT M02/M06 A3018 RMK A01 T10211055  RH  077%=      5-min Rain = 0
KARS 171505Z 00005KT M02/M05 A3018 RMK A01 T10201054  RH  077%=      5-min Rain = 0
KARS 171506Z 36005KT M02/M05 A3018 RMK A01 T10201054  RH  077%=      5-min Rain = 0
KARS 171507Z 00005KT M02/M06 A3018 RMK A01 T10191055  RH  076%=      5-min Rain = 0
KARS 171508Z 00005KT M02/M05 A3018 RMK A01 T10191054  RH  077%=      5-min Rain = 0
KARS 171509Z 00005KT M02/M05 A3018 RMK A01 T10181054  RH  077%=      5-min Rain = 0
KARS 171510Z 00005KT M02/M05 A3018 RMK A01 T10181054  RH  077%=      5-min Rain = 0
KARS 171511Z 00005KT M02/M05 A3018 RMK A01 T10181053  RH  077%=      5-min Rain = 0
KARS 171512Z 01005KT M02/M06 A3018 RMK A01 T10171055  RH  075%=      5-min Rain = 0
KARS 171513Z 01005KT M02/M06 A3018 RMK A01 T10171055  RH  075%=      5-min Rain = 0
KARS 171514Z 00005KT M02/M05 A3018 RMK A01 T10171054  RH  076%=      5-min Rain = 0
KARS 171515Z 00005KT M02/M05 A3018 RMK A01 T10171054  RH  076%=      5-min Rain = 0
KARS 171516Z 00004KT M02/M05 A3018 RMK A01 T10171053  RH  076%=      5-min Rain = 0
KARS 171517Z 00004KT M02/M05 A3018 RMK A01 T10161052  RH  076%=      5-min Rain = 0
KARS 171518Z 01004KT M02/M05 A3018 RMK A01 T10151051  RH  077%=      5-min Rain = 0
KARS 171519Z 01003KT M02/M05 A3018 RMK A01 T10151051  RH  076%=      5-min Rain = 0
KARS 171520Z 01004KT M01/M05 A3018 RMK A01 T10141052  RH  075%=      5-min Rain = 0
KARS 171521Z 01004KT M01/M05 A3018 RMK A01 T10141052  RH  075%=      5-min Rain = 0
KARS 171522Z 00004KT M01/M05 A3018 RMK A01 T10131050  RH  076%=      5-min Rain = 0
KARS 171523Z 00004KT M01/M05 A3018 RMK A01 T10131050  RH  076%=      5-min Rain = 0
KARS 171524Z 00004KT M01/M05 A3018 RMK A01 T10121051  RH  075%=      5-min Rain = 0
KARS 171525Z 00005KT M01/M05 A3018 RMK A01 T10111050  RH  075%=      5-min Rain = 0
KARS 171526Z 36004KT M01/M05 A3018 RMK A01 T10101050  RH  074%=      5-min Rain = 0
KARS 171527Z 00005KT M01/M05 A3018 RMK A01 T10091049  RH  074%=      5-min Rain = 0
KARS 171528Z 36004KT M01/M05 A3018 RMK A01 T10081046  RH  075%=      5-min Rain = 0
KARS 171529Z 00004KT M01/M05 A3018 RMK A01 T10071049  RH  073%=      5-min Rain = 0
KARS 171530Z 36004KT M01/M05 A3018 RMK A01 T10061046  RH  074%=      5-min Rain = 0
KARS 171531Z 36004KT M00/M04 A3018 RMK A01 T10041043  RH  075%=      5-min Rain = 0
KARS 171532Z 36005KT M00/M05 A3018 RMK A01 T10031047  RH  072%=      5-min Rain = 0
KARS 171533Z 36004KT M00/M05 A3019 RMK A01 T10021048  RH  071%=      5-min Rain = 0
KARS 171534Z 36005KT M00/M04 A3019 RMK A01 T10011043  RH  073%=      5-min Rain = 0
KARS 171535Z 00005KT 00/M04 A3019 RMK A01 T00011044  RH  072%=      5-min Rain = 0
KARS 171536Z 00006KT 00/M04 A3019 RMK A01 T00021041  RH  073%=      5-min Rain = 0
KARS 171537Z 00006KT 00/M04 A3019 RMK A01 T00041043  RH  071%=      5-min Rain = 0
KARS 171538Z 00006KT 01/M04 A3019 RMK A01 T00051043  RH  071%=      5-min Rain = 0
KARS 171539Z 00006KT 01/M04 A3019 RMK A01 T00051044  RH  070%=      5-min Rain = 0
KARS 171540Z 00006KT 01/M04 A3019 RMK A01 T00051044  RH  070%=      5-min Rain = 0
KARS 171541Z 00005KT 01/M04 A3019 RMK A01 T00051044  RH  070%=      5-min Rain = 0
KARS 171542Z 00005KT 01/M04 A3019 RMK A01 T00071043  RH  069%=      5-min Rain = 0
KARS 171543Z 01005KT 01/M05 A3019 RMK A01 T00071045  RH  068%=      5-min Rain = 0
KARS 171544Z 01004KT 01/M04 A3019 RMK A01 T00081044  RH  068%=      5-min Rain = 0
KARS 171545Z 01004KT 01/M04 A3019 RMK A01 T00091041  RH  069%=      5-min Rain = 0
KARS 171546Z 00004KT 01/M04 A3019 RMK A01 T00111037  RH  070%=      5-min Rain = 0
KARS 171547Z 01004KT 01/M04 A3019 RMK A01 T00121042  RH  067%=      5-min Rain = 0
KARS 171548Z 00003KT 01/M04 A3019 RMK A01 T00131041  RH  068%=      5-min Rain = 0
KARS 171549Z 00003KT 01/M04 A3019 RMK A01 T00131042  RH  067%=      5-min Rain = 0
KARS 171550Z 35002KT 01/M04 A3019 RMK A01 T00141040  RH  067%=      5-min Rain = 0
KARS 171551Z 35002KT 02/M04 A3019 RMK A01 T00151039  RH  067%=      5-min Rain = 0
KARS 171552Z 00003KT 02/M04 A3019 RMK A01 T00161038  RH  067%=      5-min Rain = 0
KARS 171553Z 01003KT 02/M04 A3019 RMK A01 T00181037  RH  067%=      5-min Rain = 0
KARS 171554Z 01004KT 02/M04 A3019 RMK A01 T00201037  RH  066%=      5-min Rain = 0
KARS 171555Z 01004KT 02/M04 A3019 RMK A01 T00221037  RH  065%=      5-min Rain = 0
KARS 171556Z 01004KT 02/M04 A3019 RMK A01 T00231038  RH  064%=      5-min Rain = 0
KARS 171557Z 01005KT 02/M04 A3019 RMK A01 T00241036  RH  065%=      5-min Rain = 0
KARS 171558Z 01004KT 03/M04 A3019 RMK A01 T00251036  RH  064%=      5-min Rain = 0
KARS 171559Z 02005KT 03/M04 A3019 RMK A01 T00251037  RH  064%=      5-min Rain = 0
KARS 171600Z 02005KT 03/M04 A3019 RMK A01 T00251038  RH  063%=      5-min Rain = 0
KARS 171601Z 00005KT 03/M04 A3019 RMK A01 T00261035  RH  064%=      5-min Rain = 0
KARS 171602Z 01004KT 03/M04 A3019 RMK A01 T00281035  RH  063%=      5-min Rain = 0
KARS 171603Z 01004KT 03/M03 A3019 RMK A01 T00281034  RH  063%=      5-min Rain = 0
KARS 171604Z 02004KT 03/M04 A3019 RMK A01 T00301035  RH  062%=      5-min Rain = 0
KARS 171605Z 02004KT 03/M04 A3019 RMK A01 T00301036  RH  062%=      5-min Rain = 0
KARS 171606Z 01004KT 03/M03 A3019 RMK A01 T00311030  RH  064%=      5-min Rain = 0
KARS 171607Z 00004KT 03/M04 A3019 RMK A01 T00321036  RH  061%=      5-min Rain = 0
KARS 171608Z 01004KT 03/M04 A3019 RMK A01 T00321036  RH  061%=      5-min Rain = 0
KARS 171609Z 01004KT 03/M04 A3019 RMK A01 T00321035  RH  061%=      5-min Rain = 0
KARS 171610Z 02004KT 03/M04 A3019 RMK A01 T00341035  RH  060%=      5-min Rain = 0
KARS 171611Z 01004KT 04/M04 A3019 RMK A01 T00351036  RH  060%=      5-min Rain = 0
KARS 171612Z 01004KT 04/M04 A3019 RMK A01 T00361035  RH  060%=      5-min Rain = 0
KARS 171613Z 01004KT 04/M03 A3019 RMK A01 T00361034  RH  060%=      5-min Rain = 0
KARS 171614Z 01004KT 04/M03 A3019 RMK A01 T00371033  RH  060%=      5-min Rain = 0
KARS 171615Z 03004KT 04/M03 A3019 RMK A01 T00381033  RH  060%=      5-min Rain = 0
KARS 171616Z 03005KT 04/M04 A3019 RMK A01 T00391039  RH  057%=      5-min Rain = 0
KARS 171617Z 04005KT 04/M04 A3019 RMK A01 T00411042  RH  055%=      5-min Rain = 0
KARS 171618Z 04004KT 04/M04 A302 RMK A01 T00421038  RH  056%=      5-min Rain = 0
KARS 171619Z 03005KT 04/M04 A302 RMK A01 T00431039  RH  055%=      5-min Rain = 0
KARS 171620Z 03005KT 04/M04 A302 RMK A01 T00441042  RH  054%=      5-min Rain = 0
KARS 171621Z 04005KT 04/M04 A3019 RMK A01 T00441044  RH  053%=      5-min Rain = 0
KARS 171622Z 03005KT 05/M04 A3019 RMK A01 T00451042  RH  053%=      5-min Rain = 0
KARS 171623Z 03005KT 05/M04 A3019 RMK A01 T00461043  RH  052%=      5-min Rain = 0
KARS 171624Z 02005KT 05/M04 A302 RMK A01 T00471039  RH  053%=      5-min Rain = 0
KARS 171625Z 03005KT 05/M04 A302 RMK A01 T00491042  RH  052%=      5-min Rain = 0
KARS 171626Z 02005KT 05/M05 A302 RMK A01 T00491046  RH  050%=      5-min Rain = 0
KARS 171627Z 02006KT 05/M05 A302 RMK A01 T00481046  RH  051%=      5-min Rain = 0
KARS 171628Z 02006KT 05/M05 A302 RMK A01 T00471047  RH  050%=      5-min Rain = 0
KARS 171629Z 02006KT 05/M04 A302 RMK A01 T00471040  RH  053%=      5-min Rain = 0
KARS 171630Z 02007KT 05/M04 A302 RMK A01 T00491039  RH  053%=      5-min Rain = 0
KARS 171631Z 02008KT 05/M04 A302 RMK A01 T00521042  RH  051%=      5-min Rain = 0
KARS 171632Z 03006KT 05/M05 A302 RMK A01 T00521046  RH  049%=      5-min Rain = 0
KARS 171633Z 02006KT 05/M05 A302 RMK A01 T00511045  RH  050%=      5-min Rain = 0
KARS 171634Z 02007KT 05/M04 A302 RMK A01 T00531043  RH  050%=      5-min Rain = 0
KARS 171635Z 02008KT 06/M05 A302 RMK A01 T00551047  RH  048%=      5-min Rain = 0
KARS 171636Z 06007KT 06/M05 A302 RMK A01 T00571053  RH  045%=      5-min Rain = 0
KARS 171637Z 04007KT 06/M06 A302 RMK A01 T00581058  RH  043%=      5-min Rain = 0
KARS 171638Z 03011KT 06/M06 A302 RMK A01 T00581057  RH  043%=      5-min Rain = 0
KARS 171639Z 05009KT 06/M06 A302 RMK A01 T00581058  RH  043%=      5-min Rain = 0
KARS 171640Z 05008KT 06/M06 A302 RMK A01 T00581058  RH  043%=      5-min Rain = 0
KARS 171641Z 05009KT 06/M06 A302 RMK A01 T00591057  RH  043%=      5-min Rain = 0
KARS 171642Z 05009KT 06/M06 A302 RMK A01 T00601055  RH  043%=      5-min Rain = 0
KARS 171643Z 05010KT 06/M06 A302 RMK A01 T00611059  RH  042%=      5-min Rain = 0
KARS 171644Z 06008KT 06/M06 A302 RMK A01 T00591060  RH  042%=      5-min Rain = 0
KARS 171645Z 05008KT 06/M06 A302 RMK A01 T00601056  RH  043%=      5-min Rain = 0
KARS 171646Z 04009KT 06/M05 A302 RMK A01 T00621054  RH  043%=      5-min Rain = 0
KARS 171647Z 04009KT 06/M06 A302 RMK A01 T00621058  RH  042%=      5-min Rain = 0
KARS 171648Z 05008KT 06/M06 A302 RMK A01 T00611058  RH  042%=      5-min Rain = 0
KARS 171649Z 04010KT 06/M06 A302 RMK A01 T00621055  RH  043%=      5-min Rain = 0
KARS 171650Z 04011KT 06/M06 A302 RMK A01 T00621058  RH  042%=      5-min Rain = 0
KARS 171651Z 05010KT 06/M06 A302 RMK A01 T00621059  RH  042%=      5-min Rain = 0
KARS 171652Z 05010KT 06/M06 A302 RMK A01 T00621059  RH  042%=      5-min Rain = 0
KARS 171653Z 06008KT 06/M06 A302 RMK A01 T00621058  RH  042%=      5-min Rain = 0
KARS 171654Z 05009KT 06/M06 A302 RMK A01 T00631056  RH  042%=      5-min Rain = 0
KARS 171655Z 06011KT 06/M06 A302 RMK A01 T00631061  RH  041%=      5-min Rain = 0
KARS 171656Z 06010KT 06/M06 A3019 RMK A01 T00621062  RH  041%=      5-min Rain = 0
KARS 171657Z 05009KT 06/M06 A3019 RMK A01 T00611063  RH  041%=      5-min Rain = 0
KARS 171658Z 05010KT 06/M06 A3019 RMK A01 T00621060  RH  041%=      5-min Rain = 0
KARS 171659Z 05011KT 06/M06 A3019 RMK A01 T00631061  RH  041%=      5-min Rain = 0
KARS 171700Z 05010KT 06/M06 A302 RMK A01 T00631061  RH  041%=      5-min Rain = 0
KARS 171701Z 05009KT 06/M06 A302 RMK A01 T00631061  RH  041%=      5-min Rain = 0
KARS 171702Z 06009KT 06/M06 A302 RMK A01 T00641058  RH  041%=      5-min Rain = 0
KARS 171703Z 06009KT 07/M06 A302 RMK A01 T00661058  RH  041%=      5-min Rain = 0
KARS 171704Z 05010KT 07/M06 A302 RMK A01 T00671059  RH  040%=      5-min Rain = 0
KARS 171705Z 05010KT 07/M06 A302 RMK A01 T00661060  RH  040%=      5-min Rain = 0
KARS 171706Z 04009KT 07/M06 A302 RMK A01 T00651062  RH  040%=      5-min Rain = 0
KARS 171707Z 04009KT 07/M06 A302 RMK A01 T00651060  RH  040%=      5-min Rain = 0
KARS 171708Z 04011KT 07/M06 A302 RMK A01 T00651061  RH  040%=      5-min Rain = 0
KARS 171709Z 05011KT 07/M06 A302 RMK A01 T00661060  RH  040%=      5-min Rain = 0
KARS 171710Z 05008KT 07/M06 A302 RMK A01 T00661060  RH  040%=      5-min Rain = 0
KARS 171711Z 05010KT 07/M06 A302 RMK A01 T00671060  RH  040%=      5-min Rain = 0
KARS 171712Z 04010KT 07/M06 A302 RMK A01 T00671061  RH  040%=      5-min Rain = 0
KARS 171713Z 04010KT 07/M06 A302 RMK A01 T00661061  RH  040%=      5-min Rain = 0
KARS 171714Z 06007KT 07/M06 A302 RMK A01 T00661063  RH  039%=      5-min Rain = 0
KARS 171715Z 04009KT 07/M06 A302 RMK A01 T00661061  RH  040%=      5-min Rain = 0
KARS 171716Z 04010KT 07/M06 A302 RMK A01 T00671060  RH  040%=      5-min Rain = 0
KARS 171717Z 04011KT 07/M06 A302 RMK A01 T00671061  RH  039%=      5-min Rain = 0
KARS 171718Z 04009KT 07/M06 A302 RMK A01 T00681061  RH  039%=      5-min Rain = 0
KARS 171719Z 05011KT 07/M06 A302 RMK A01 T00691061  RH  039%=      5-min Rain = 0
KARS 171720Z 05011KT 07/M06 A302 RMK A01 T00691061  RH  039%=      5-min Rain = 0
KARS 171721Z 05012KT 07/M06 A302 RMK A01 T00691060  RH  039%=      5-min Rain = 0
KARS 171722Z 05010KT 07/M06 A302 RMK A01 T00691059  RH  040%=      5-min Rain = 0
KARS 171723Z 05011KT 07/M06 A302 RMK A01 T00701061  RH  039%=      5-min Rain = 0
KARS 171724Z 04009KT 07/M06 A302 RMK A01 T00701060  RH  039%=      5-min Rain = 0
KARS 171725Z 04008KT 07/M06 A302 RMK A01 T00701064  RH  038%=      5-min Rain = 0
KARS 171726Z 06010KT 07/M06 A302 RMK A01 T00691062  RH  039%=      5-min Rain = 0
KARS 171727Z 06009KT 07/M07 A302 RMK A01 T00701065  RH  038%=      5-min Rain = 0
KARS 171728Z 06009KT 07/M06 A302 RMK A01 T00701061  RH  039%=      5-min Rain = 0
KARS 171729Z 05009KT 07/M06 A302 RMK A01 T00701060  RH  039%=      5-min Rain = 0
KARS 171730Z 04008KT 07/M06 A302 RMK A01 T00701060  RH  039%=      5-min Rain = 0
KARS 171731Z 06011G16KT 07/M06 A3019 RMK A01 T00711057  RH  039%=      5-min Rain = 0
KARS 171732Z 06009KT 07/M06 A3019 RMK A01 T00741058  RH  038%=      5-min Rain = 0
KARS 171733Z 07009KT 08/M06 A3019 RMK A01 T00751061  RH  038%=      5-min Rain = 0
KARS 171734Z 06009KT 07/M06 A3019 RMK A01 T00731062  RH  038%=      5-min Rain = 0
KARS 171735Z 06008KT 07/M06 A3019 RMK A01 T00731061  RH  038%=      5-min Rain = 0
KARS 171736Z 05008KT 07/M06 A3019 RMK A01 T00721064  RH  037%=      5-min Rain = 0
KARS 171737Z 04006KT 07/M06 A3019 RMK A01 T00701062  RH  039%=      5-min Rain = 0
KARS 171738Z 05008KT 07/M06 A3019 RMK A01 T00711061  RH  039%=      5-min Rain = 0
KARS 171739Z 04008KT 07/M06 A3019 RMK A01 T00731058  RH  039%=      5-min Rain = 0
KARS 171740Z 06009KT 08/M06 A3019 RMK A01 T00751060  RH  038%=      5-min Rain = 0
KARS 171741Z 05010KT 08/M06 A3019 RMK A01 T00761060  RH  037%=      5-min Rain = 0
KARS 171742Z 05011KT 08/M06 A3019 RMK A01 T00771058  RH  038%=      5-min Rain = 0
KARS 171743Z 06008KT 08/M06 A3019 RMK A01 T00771063  RH  036%=      5-min Rain = 0
KARS 171744Z 05010KT 07/M07 A3019 RMK A01 T00741065  RH  037%=      5-min Rain = 0
KARS 171745Z 07008KT 07/M06 A3019 RMK A01 T00721062  RH  038%=      5-min Rain = 0
KARS 171746Z 07006KT 07/M06 A3019 RMK A01 T00731062  RH  037%=      5-min Rain = 0
KARS 171747Z 05005KT 07/M06 A3019 RMK A01 T00741061  RH  038%=      5-min Rain = 0
KARS 171748Z 07008KT 08/M06 A3019 RMK A01 T00751063  RH  037%=      5-min Rain = 0
KARS 171749Z 06009KT 08/M06 A3019 RMK A01 T00761062  RH  037%=      5-min Rain = 0
KARS 171750Z 05009KT 08/M06 A3019 RMK A01 T00781061  RH  037%=      5-min Rain = 0
KARS 171751Z 04009KT 08/M06 A3019 RMK A01 T00771064  RH  036%=      5-min Rain = 0
KARS 171752Z 03009KT 08/M06 A3019 RMK A01 T00761062  RH  037%=      5-min Rain = 0
KARS 171753Z 05009KT 08/M06 A3019 RMK A01 T00751062  RH  037%=      5-min Rain = 0
KARS 171754Z 06009KT 08/M06 A3019 RMK A01 T00751061  RH  037%=      5-min Rain = 0
KARS 171755Z 06006KT 08/M06 A3019 RMK A01 T00751059  RH  038%=      5-min Rain = 0
KARS 171756Z 05007KT 08/M06 A3019 RMK A01 T00761061  RH  037%=      5-min Rain = 0
KARS 171757Z 04007KT 08/M06 A3019 RMK A01 T00761062  RH  037%=      5-min Rain = 0
KARS 171758Z 05006KT 08/M06 A3019 RMK A01 T00751063  RH  037%=      5-min Rain = 0
KARS 171759Z 06006KT 08/M06 A3019 RMK A01 T00751062  RH  037%=      5-min Rain = 0
KARS 171800Z 07009KT 08/M06 A3018 RMK A01 T00771061  RH  037%=      5-min Rain = 0
KARS 171801Z 07008KT 08/M06 A3018 RMK A01 T00771062  RH  036%=      5-min Rain = 0
KARS 171802Z 08007KT 08/M06 A3018 RMK A01 T00781063  RH  036%=      5-min Rain = 0
KARS 171803Z 08005KT 08/M06 A3018 RMK A01 T00771064  RH  036%=      5-min Rain = 0
KARS 171804Z 08006KT 08/M06 A3018 RMK A01 T00761064  RH  036%=      5-min Rain = 0
KARS 171805Z 09005KT 08/M06 A3018 RMK A01 T00771064  RH  036%=      5-min Rain = 0
KARS 171806Z 04007KT 08/M06 A3018 RMK A01 T00771061  RH  037%=      5-min Rain = 0
KARS 171807Z 03006KT 08/M06 A3018 RMK A01 T00801062  RH  036%=      5-min Rain = 0
KARS 171808Z 04007KT 08/M06 A3018 RMK A01 T00781063  RH  036%=      5-min Rain = 0
KARS 171809Z 05009KT 08/M06 A3018 RMK A01 T00781060  RH  037%=      5-min Rain = 0
KARS 171810Z 06007KT 08/M06 A3018 RMK A01 T00791062  RH  036%=      5-min Rain = 0
KARS 171811Z 06007KT 08/M06 A3018 RMK A01 T00791061  RH  036%=      5-min Rain = 0
KARS 171812Z 07007KT 08/M06 A3018 RMK A01 T00811059  RH  036%=      5-min Rain = 0
KARS 171813Z 05006KT 08/M06 A3018 RMK A01 T00841058  RH  036%=      5-min Rain = 0
KARS 171814Z 05007KT 09/M06 A3018 RMK A01 T00851060  RH  035%=      5-min Rain = 0
KARS 171815Z 05005KT 08/M06 A3018 RMK A01 T00831064  RH  035%=      5-min Rain = 0
KARS 171816Z 05003KT 08/M06 A3018 RMK A01 T00811063  RH  035%=      5-min Rain = 0
KARS 171817Z 05004KT 08/M06 A3018 RMK A01 T00821062  RH  035%=      5-min Rain = 0
KARS 171818Z 05006KT 08/M06 A3018 RMK A01 T00841062  RH  035%=      5-min Rain = 0
KARS 171819Z 05006KT 08/M06 A3017 RMK A01 T00831063  RH  035%=      5-min Rain = 0
KARS 171820Z 06006KT 08/M06 A3017 RMK A01 T00831062  RH  035%=      5-min Rain = 0
KARS 171821Z 06007KT 08/M06 A3017 RMK A01 T00831064  RH  035%=      5-min Rain = 0
KARS 171822Z 07006KT 08/M06 A3017 RMK A01 T00831064  RH  035%=      5-min Rain = 0
KARS 171823Z 07005KT 08/M06 A3017 RMK A01 T00831064  RH  035%=      5-min Rain = 0
KARS 171824Z 07006KT 08/M06 A3017 RMK A01 T00831063  RH  035%=      5-min Rain = 0
KARS 171825Z 07006KT 09/M06 A3017 RMK A01 T00851063  RH  035%=      5-min Rain = 0
KARS 171826Z 08004KT 09/M06 A3017 RMK A01 T00861060  RH  035%=      5-min Rain = 0
KARS 171827Z 06003KT 09/M06 A3017 RMK A01 T00871064  RH  034%=      5-min Rain = 0
KARS 171828Z 05002KT 09/M07 A3016 RMK A01 T00861065  RH  034%=      5-min Rain = 0
KARS 171829Z 08007KT 09/M06 A3016 RMK A01 T00861062  RH  035%=      5-min Rain = 0
KARS 171830Z 08006KT 09/M06 A3016 RMK A01 T00871064  RH  034%=      5-min Rain = 0
KARS 171831Z 07005KT 09/M07 A3016 RMK A01 T00851065  RH  034%=      5-min Rain = 0
KARS 171832Z 07003KT 09/M06 A3016 RMK A01 T00851064  RH  034%=      5-min Rain = 0
KARS 171833Z 11003KT 08/M07 A3016 RMK A01 T00841065  RH  034%=      5-min Rain = 0
KARS 171834Z 11006KT 09/M06 A3016 RMK A01 T00861063  RH  034%=      5-min Rain = 0
KARS 171835Z 09005KT 09/M06 A3016 RMK A01 T00861064  RH  034%=      5-min Rain = 0
KARS 171836Z 12005KT 09/M06 A3015 RMK A01 T00871061  RH  035%=      5-min Rain = 0
KARS 171837Z 09003KT 09/M06 A3015 RMK A01 T00901062  RH  034%=      5-min Rain = 0
KARS 171838Z 08004KT 09/M06 A3015 RMK A01 T00911062  RH  033%=      5-min Rain = 0
KARS 171839Z 08003KT 09/M07 A3015 RMK A01 T00901065  RH  033%=      5-min Rain = 0
KARS 171840Z 03002KT 09/M07 A3015 RMK A01 T00891066  RH  033%=      5-min Rain = 0
KARS 171841Z 04004KT 09/M07 A3015 RMK A01 T00881065  RH  033%=      5-min Rain = 0
KARS 171842Z 06005KT 09/M06 A3015 RMK A01 T00891062  RH  034%=      5-min Rain = 0
KARS 171843Z 07004KT 09/M06 A3015 RMK A01 T00891063  RH  033%=      5-min Rain = 0
KARS 171844Z 08005KT 09/M06 A3015 RMK A01 T00891063  RH  034%=      5-min Rain = 0
KARS 171845Z 06004KT 09/M06 A3015 RMK A01 T00881063  RH  034%=      5-min Rain = 0
KARS 171846Z 06004KT 09/M06 A3014 RMK A01 T00881063  RH  034%=      5-min Rain = 0
KARS 171847Z 06003KT 09/M06 A3014 RMK A01 T00881063  RH  034%=      5-min Rain = 0
KARS 171848Z 07004KT 09/M06 A3014 RMK A01 T00891061  RH  034%=      5-min Rain = 0
KARS 171849Z 05003KT 09/M06 A3014 RMK A01 T00891064  RH  033%=      5-min Rain = 0
KARS 171850Z 04003KT 09/M07 A3014 RMK A01 T00871065  RH  033%=      5-min Rain = 0
KARS 171851Z 08002KT 09/M07 A3014 RMK A01 T00851065  RH  034%=      5-min Rain = 0
KARS 171852Z 04002KT 09/M06 A3014 RMK A01 T00861064  RH  034%=      5-min Rain = 0
KARS 171853Z 08004KT 09/M06 A3014 RMK A01 T00861064  RH  034%=      5-min Rain = 0
KARS 171854Z 12005KT 09/M06 A3014 RMK A01 T00861064  RH  034%=      5-min Rain = 0
KARS 171855Z 10007KT 09/M06 A3014 RMK A01 T00871063  RH  034%=      5-min Rain = 0
KARS 171856Z 11004KT 09/M06 A3013 RMK A01 T00871064  RH  034%=      5-min Rain = 0
KARS 171857Z 09005KT 09/M06 A3013 RMK A01 T00881061  RH  034%=      5-min Rain = 0
KARS 171858Z 08006KT 09/M06 A3013 RMK A01 T00891062  RH  034%=      5-min Rain = 0
KARS 171859Z 08004KT 09/M07 A3013 RMK A01 T00871066  RH  033%=      5-min Rain = 0
KARS 171900Z 07004KT 09/M07 A3013 RMK A01 T00861066  RH  033%=      5-min Rain = 0
KARS 171901Z 07004KT 09/M07 A3013 RMK A01 T00851065  RH  034%=      5-min Rain = 0
KARS 171902Z 07003KT 09/M07 A3013 RMK A01 T00851065  RH  034%=      5-min Rain = 0
KARS 171903Z 04003KT 09/M07 A3013 RMK A01 T00861066  RH  034%=      5-min Rain = 0
KARS 171904Z 04003KT 09/M07 A3013 RMK A01 T00861066  RH  033%=      5-min Rain = 0
KARS 171905Z 06003KT 09/M07 A3013 RMK A01 T00851067  RH  033%=      5-min Rain = 0
KARS 171906Z 06004KT 09/M07 A3013 RMK A01 T00851066  RH  034%=      5-min Rain = 0
KARS 171907Z 06004KT 09/M07 A3013 RMK A01 T00851066  RH  034%=      5-min Rain = 0
KARS 171908Z 10003KT 09/M07 A3013 RMK A01 T00851065  RH  034%=      5-min Rain = 0
KARS 171909Z 12002KT 09/M06 A3013 RMK A01 T00891060  RH  035%=      5-min Rain = 0
KARS 171910Z 11001KT 09/M07 A3013 RMK A01 T00911065  RH  033%=      5-min Rain = 0
KARS 171911Z 09003KT 09/M07 A3013 RMK A01 T00921065  RH  032%=      5-min Rain = 0
KARS 171912Z 11005KT 09/M06 A3013 RMK A01 T00921062  RH  033%=      5-min Rain = 0
KARS 171913Z 13007KT 09/M06 A3013 RMK A01 T00941059  RH  034%=      5-min Rain = 0
KARS 171914Z 13007KT 09/M06 A3012 RMK A01 T00941062  RH  033%=      5-min Rain = 0
KARS 171915Z 14006KT 09/M06 A3012 RMK A01 T00921060  RH  034%=      5-min Rain = 0
KARS 171916Z 13005KT 09/M06 A3012 RMK A01 T00921061  RH  033%=      5-min Rain = 0
KARS 171917Z 12004KT 09/M07 A3012 RMK A01 T00911065  RH  033%=      5-min Rain = 0
KARS 171918Z 10005KT 09/M06 A3012 RMK A01 T00891063  RH  033%=      5-min Rain = 0
KARS 171919Z 11005KT 09/M07 A3012 RMK A01 T00881065  RH  033%=      5-min Rain = 0
KARS 171920Z 14005KT 09/M06 A3012 RMK A01 T00871064  RH  034%=      5-min Rain = 0
KARS 171921Z 15004KT 09/M06 A3012 RMK A01 T00881063  RH  034%=      5-min Rain = 0
KARS 171922Z 15004KT 09/M07 A3012 RMK A01 T00891065  RH  033%=      5-min Rain = 0
KARS 171923Z 16003KT 09/M07 A3012 RMK A01 T00891065  RH  033%=      5-min Rain = 0
KARS 171924Z 15001KT 09/M07 A3012 RMK A01 T00881065  RH  033%=      5-min Rain = 0
KARS 171925Z 15001KT 09/M06 A3012 RMK A01 T00891064  RH  033%=      5-min Rain = 0
KARS 171926Z 13004KT 09/M06 A3012 RMK A01 T00911063  RH  033%=      5-min Rain = 0
KARS 171927Z 15003KT 09/M07 A3012 RMK A01 T00921065  RH  033%=      5-min Rain = 0
KARS 171928Z 15001KT 09/M07 A3011 RMK A01 T00901066  RH  033%=      5-min Rain = 0
KARS 171929Z 34000KT 09/M07 A3011 RMK A01 T00901066  RH  033%=      5-min Rain = 0
KARS 171930Z 03001KT 09/M07 A3011 RMK A01 T00901065  RH  033%=      5-min Rain = 0
KARS 171931Z 12004KT 09/M06 A3011 RMK A01 T00901062  RH  034%=      5-min Rain = 0
KARS 171932Z 11004KT 09/M06 A3011 RMK A01 T00931062  RH  033%=      5-min Rain = 0
KARS 171933Z 13003KT 09/M06 A3011 RMK A01 T00921064  RH  033%=      5-min Rain = 0
KARS 171934Z 18005KT 09/M06 A3011 RMK A01 T00921062  RH  033%=      5-min Rain = 0
KARS 171935Z 18007KT 09/M06 A3011 RMK A01 T00921062  RH  033%=      5-min Rain = 0
KARS 171936Z 18005KT 09/M06 A301 RMK A01 T00921061  RH  033%=      5-min Rain = 0
KARS 171937Z 18005KT 09/M06 A301 RMK A01 T00921060  RH  033%=      5-min Rain = 0
KARS 171938Z 19004KT 09/M06 A301 RMK A01 T00931061  RH  033%=      5-min Rain = 0
KARS 171939Z 21004KT 09/M06 A301 RMK A01 T00941060  RH  033%=      5-min Rain = 0
KARS 171940Z 21005KT 09/M06 A301 RMK A01 T00931062  RH  033%=      5-min Rain = 0
KARS 171941Z 21006KT 09/M06 A301 RMK A01 T00921061  RH  033%=      5-min Rain = 0
KARS 171942Z 20006KT 09/M06 A301 RMK A01 T00911059  RH  034%=      5-min Rain = 0
KARS 171943Z 21005KT 09/M06 A301 RMK A01 T00921060  RH  034%=      5-min Rain = 0
KARS 171944Z 21002KT 09/M06 A301 RMK A01 T00921061  RH  033%=      5-min Rain = 0
KARS 171945Z 20005KT 09/M06 A301 RMK A01 T00921060  RH  034%=      5-min Rain = 0
KARS 171946Z 19005KT 09/M06 A301 RMK A01 T00921060  RH  033%=      5-min Rain = 0
KARS 171947Z 19002KT 09/M06 A301 RMK A01 T00911062  RH  033%=      5-min Rain = 0
KARS 171948Z 19002KT 09/M06 A301 RMK A01 T00901063  RH  033%=      5-min Rain = 0
KARS 171949Z 15005KT 09/M06 A301 RMK A01 T00911059  RH  034%=      5-min Rain = 0
KARS 171950Z 15004KT 09/M06 A301 RMK A01 T00941060  RH  033%=      5-min Rain = 0
KARS 171951Z 14005KT 09/M06 A301 RMK A01 T00941057  RH  034%=      5-min Rain = 0
KARS 171952Z 16005KT 10/M06 A301 RMK A01 T00961059  RH  033%=      5-min Rain = 0
KARS 171953Z 17005KT 10/M06 A301 RMK A01 T00951059  RH  033%=      5-min Rain = 0
KARS 171954Z 16005KT 10/M06 A301 RMK A01 T00951060  RH  033%=      5-min Rain = 0
KARS 171955Z 17005KT 09/M06 A301 RMK A01 T00931060  RH  033%=      5-min Rain = 0
KARS 171956Z 16004KT 09/M06 A3011 RMK A01 T00941060  RH  033%=      5-min Rain = 0
KARS 171957Z 17002KT 09/M06 A3011 RMK A01 T00941061  RH  033%=      5-min Rain = 0
KARS 171958Z 15002KT 09/M06 A301 RMK A01 T00941061  RH  033%=      5-min Rain = 0
KARS 171959Z 12001KT 09/M06 A301 RMK A01 T00941062  RH  033%=      5-min Rain = 0
KARS 172000Z 14001KT 10/M06 A301 RMK A01 T00951061  RH  033%=      5-min Rain = 0
KARS 172001Z 14002KT 10/M06 A301 RMK A01 T00971059  RH  033%=      5-min Rain = 0
KARS 172002Z 15002KT 10/M06 A301 RMK A01 T00981061  RH  032%=      5-min Rain = 0
KARS 172003Z 15000KT 10/M06 A301 RMK A01 T00981061  RH  032%=      5-min Rain = 0
KARS 172004Z 15002KT 10/M06 A301 RMK A01 T01001058  RH  032%=      5-min Rain = 0
KARS 172005Z 15002KT 10/M06 A301 RMK A01 T01021060  RH  031%=      5-min Rain = 0
KARS 172006Z 14005KT 10/M06 A301 RMK A01 T01021060  RH  031%=      5-min Rain = 0
KARS 172007Z 12004KT 10/M06 A3011 RMK A01 T01011060  RH  032%=      5-min Rain = 0
KARS 172008Z 13005KT 10/M06 A301 RMK A01 T00981062  RH  032%=      5-min Rain = 0
KARS 172009Z 12004KT 10/M06 A301 RMK A01 T00961063  RH  032%=      5-min Rain = 0
KARS 172010Z 18004KT 09/M06 A301 RMK A01 T00931063  RH  033%=      5-min Rain = 0
KARS 172011Z 20003KT 09/M06 A301 RMK A01 T00931063  RH  033%=      5-min Rain = 0
KARS 172012Z 18004KT 09/M06 A301 RMK A01 T00941060  RH  033%=      5-min Rain = 0
KARS 172013Z 14006KT 10/M06 A301 RMK A01 T00971058  RH  033%=      5-min Rain = 0
KARS 172014Z 09006KT 10/M06 A301 RMK A01 T00981059  RH  033%=      5-min Rain = 0
KARS 172015Z 12004KT 10/M06 A301 RMK A01 T01001057  RH  032%=      5-min Rain = 0
KARS 172016Z 08004KT 10/M06 A301 RMK A01 T01001059  RH  032%=      5-min Rain = 0
KARS 172017Z 06005KT 10/M06 A301 RMK A01 T01011059  RH  032%=      5-min Rain = 0
KARS 172018Z 05005KT 10/M06 A301 RMK A01 T00991060  RH  032%=      5-min Rain = 0
KARS 172019Z 04005KT 10/M06 A301 RMK A01 T00991058  RH  033%=      5-min Rain = 0
KARS 172020Z 05004KT 10/M06 A3011 RMK A01 T01011056  RH  033%=      5-min Rain = 0
KARS 172021Z 06005KT 10/M06 A3011 RMK A01 T01021058  RH  032%=      5-min Rain = 0
KARS 172022Z 08003KT 10/M06 A3011 RMK A01 T01001062  RH  031%=      5-min Rain = 0
KARS 172023Z 06005KT 10/M06 A3011 RMK A01 T00971062  RH  032%=      5-min Rain = 0
KARS 172024Z 06005KT 10/M06 A301 RMK A01 T00961062  RH  032%=      5-min Rain = 0
KARS 172025Z 06003KT 10/M06 A3011 RMK A01 T00951060  RH  033%=      5-min Rain = 0
KARS 172026Z 06003KT 10/M06 A3011 RMK A01 T00971061  RH  032%=      5-min Rain = 0
KARS 172027Z 05005KT 10/M06 A3011 RMK A01 T00981059  RH  033%=      5-min Rain = 0
KARS 172028Z 05004KT 10/M06 A3011 RMK A01 T00981062  RH  032%=      5-min Rain = 0
KARS 172029Z 04002KT 10/M06 A3011 RMK A01 T00971060  RH  033%=      5-min Rain = 0
KARS 172030Z 01002KT 10/M06 A3011 RMK A01 T00981061  RH  032%=      5-min Rain = 0
KARS 172031Z 06004KT 10/M06 A3011 RMK A01 T00991060  RH  032%=      5-min Rain = 0
KARS 172032Z 07006KT 10/M06 A3011 RMK A01 T00981062  RH  032%=      5-min Rain = 0
KARS 172033Z 10005KT 10/M06 A3011 RMK A01 T00971062  RH  032%=      5-min Rain = 0
KARS 172034Z 12005KT 10/M06 A3011 RMK A01 T00961060  RH  033%=      5-min Rain = 0
KARS 172035Z 13005KT 10/M06 A3011 RMK A01 T00971062  RH  032%=      5-min Rain = 0
KARS 172036Z 11002KT 10/M06 A3011 RMK A01 T00961063  RH  032%=      5-min Rain = 0
KARS 172037Z 08004KT 10/M06 A3011 RMK A01 T00961062  RH  032%=      5-min Rain = 0
KARS 172038Z 08004KT 10/M06 A3011 RMK A01 T00971062  RH  032%=      5-min Rain = 0
KARS 172039Z 07005KT 10/M06 A3011 RMK A01 T00981060  RH  032%=      5-min Rain = 0
KARS 172040Z 06004KT 10/M06 A3011 RMK A01 T00981061  RH  032%=      5-min Rain = 0
KARS 172041Z 04001KT 10/M06 A3011 RMK A01 T00981063  RH  032%=      5-min Rain = 0
KARS 172042Z 04003KT 10/M06 A3011 RMK A01 T00981062  RH  032%=      5-min Rain = 0
KARS 172043Z 04005KT 10/M06 A3011 RMK A01 T00991061  RH  032%=      5-min Rain = 0
KARS 172044Z 04005KT 10/M06 A3011 RMK A01 T00991062  RH  032%=      5-min Rain = 0
KARS 172045Z 08005KT 10/M06 A3011 RMK A01 T00981061  RH  032%=      5-min Rain = 0
KARS 172046Z 08004KT 10/M06 A3011 RMK A01 T00981062  RH  032%=      5-min Rain = 0
KARS 172047Z 07003KT 10/M06 A3011 RMK A01 T00981061  RH  032%=      5-min Rain = 0
KARS 172048Z 08003KT 10/M06 A3011 RMK A01 T00991061  RH  032%=      5-min Rain = 0
KARS 172049Z 06002KT 10/M06 A3011 RMK A01 T01001063  RH  031%=      5-min Rain = 0
KARS 172050Z 06001KT 10/M06 A3011 RMK A01 T01001062  RH  031%=      5-min Rain = 0
KARS 172051Z 09001KT 10/M06 A3011 RMK A01 T01011062  RH  031%=      5-min Rain = 0
KARS 172052Z 12000KT 10/M06 A3011 RMK A01 T01021064  RH  031%=      5-min Rain = 0
KARS 172053Z 13001KT 10/M06 A3011 RMK A01 T01041061  RH  031%=      5-min Rain = 0
KARS 172054Z 07001KT 11/M06 A3011 RMK A01 T01071059  RH  031%=      5-min Rain = 0
KARS 172055Z 07001KT 11/M06 A3011 RMK A01 T01071063  RH  030%=      5-min Rain = 0
KARS 172056Z 08002KT 11/M06 A3011 RMK A01 T01051063  RH  030%=      5-min Rain = 0
KARS 172057Z 08002KT 11/M06 A3011 RMK A01 T01051062  RH  030%=      5-min Rain = 0
KARS 172058Z 02002KT 11/M06 A3011 RMK A01 T01051061  RH  031%=      5-min Rain = 0
KARS 172059Z 35000KT 11/M06 A3011 RMK A01 T01051062  RH  030%=      5-min Rain = 0
KARS 172100Z 30001KT 11/M06 A3011 RMK A01 T01061062  RH  030%=      5-min Rain = 0
KARS 172101Z 04002KT 11/M06 A3011 RMK A01 T01071061  RH  030%=      5-min Rain = 0
KARS 172102Z 08003KT 11/M06 A3011 RMK A01 T01061061  RH  030%=      5-min Rain = 0
KARS 172103Z 11004KT 10/M06 A3011 RMK A01 T01041061  RH  031%=      5-min Rain = 0
KARS 172104Z 10004KT 10/M06 A3011 RMK A01 T01021062  RH  031%=      5-min Rain = 0
KARS 172105Z 10003KT 10/M06 A3011 RMK A01 T01011062  RH  031%=      5-min Rain = 0
KARS 172106Z 10003KT 10/M06 A3011 RMK A01 T01001064  RH  031%=      5-min Rain = 0
KARS 172107Z 12004KT 10/M06 A3011 RMK A01 T00991061  RH  032%=      5-min Rain = 0
KARS 172108Z 15003KT 10/M06 A3011 RMK A01 T01001061  RH  032%=      5-min Rain = 0
KARS 172109Z 11004KT 10/M06 A3011 RMK A01 T01011061  RH  031%=      5-min Rain = 0
KARS 172110Z 10004KT 10/M06 A3011 RMK A01 T01021062  RH  031%=      5-min Rain = 0
KARS 172111Z 09003KT 10/M06 A3011 RMK A01 T01021063  RH  031%=      5-min Rain = 0
KARS 172112Z 08004KT 10/M06 A3011 RMK A01 T01021064  RH  031%=      5-min Rain = 0
KARS 172113Z 08005KT 10/M07 A3011 RMK A01 T01001065  RH  031%=      5-min Rain = 0
KARS 172114Z 08004KT 10/M06 A3011 RMK A01 T00981064  RH  031%=      5-min Rain = 0
KARS 172115Z 08004KT 10/M07 A301 RMK A01 T00971065  RH  031%=      5-min Rain = 0
KARS 172116Z 09004KT 10/M06 A301 RMK A01 T00971064  RH  031%=      5-min Rain = 0
KARS 172117Z 12004KT 10/M06 A301 RMK A01 T00971062  RH  032%=      5-min Rain = 0
KARS 172118Z 13002KT 10/M06 A301 RMK A01 T00981063  RH  032%=      5-min Rain = 0
KARS 172119Z 09002KT 10/M06 A301 RMK A01 T01001062  RH  031%=      5-min Rain = 0
KARS 172120Z 06003KT 10/M06 A301 RMK A01 T01021063  RH  031%=      5-min Rain = 0
KARS 172121Z 09003KT 10/M06 A301 RMK A01 T01011064  RH  031%=      5-min Rain = 0
KARS 172122Z 08001KT 10/M07 A301 RMK A01 T01001065  RH  031%=      5-min Rain = 0
KARS 172123Z 09002KT 10/M06 A301 RMK A01 T01001064  RH  031%=      5-min Rain = 0
KARS 172124Z 06001KT 10/M07 A301 RMK A01 T01001065  RH  031%=      5-min Rain = 0
KARS 172125Z 05000KT 10/M07 A301 RMK A01 T01011065  RH  030%=      5-min Rain = 0
KARS 172126Z 05000KT 10/M07 A301 RMK A01 T01021066  RH  030%=      5-min Rain = 0
KARS 172127Z 04001KT 10/M07 A301 RMK A01 T01031066  RH  030%=      5-min Rain = 0
KARS 172128Z 08002KT 10/M07 A301 RMK A01 T01031066  RH  030%=      5-min Rain = 0
KARS 172129Z 11002KT 10/M07 A301 RMK A01 T01021067  RH  030%=      5-min Rain = 0
KARS 172130Z 14005KT 10/M06 A301 RMK A01 T01011064  RH  031%=      5-min Rain = 0
KARS 172131Z 15006KT 10/M06 A301 RMK A01 T01011060  RH  032%=      5-min Rain = 0
KARS 172132Z 14006KT 10/M06 A301 RMK A01 T01001060  RH  032%=      5-min Rain = 0
KARS 172133Z 12005KT 10/M06 A301 RMK A01 T01001059  RH  032%=      5-min Rain = 0
KARS 172134Z 12004KT 10/M06 A301 RMK A01 T01001060  RH  032%=      5-min Rain = 0
KARS 172135Z 11003KT 10/M06 A301 RMK A01 T00991062  RH  032%=      5-min Rain = 0
KARS 172136Z 13003KT 10/M06 A301 RMK A01 T00991060  RH  032%=      5-min Rain = 0
KARS 172137Z 13002KT 10/M06 A301 RMK A01 T01001062  RH  031%=      5-min Rain = 0
KARS 172138Z 13002KT 10/M06 A301 RMK A01 T01011062  RH  031%=      5-min Rain = 0
KARS 172139Z 13002KT 10/M06 A301 RMK A01 T01021061  RH  031%=      5-min Rain = 0
KARS 172140Z 15001KT 10/M06 A301 RMK A01 T01031062  RH  031%=      5-min Rain = 0
KARS 172141Z 17001KT 10/M06 A301 RMK A01 T01031064  RH  030%=      5-min Rain = 0
KARS 172142Z 15002KT 10/M06 A301 RMK A01 T01041061  RH  031%=      5-min Rain = 0
KARS 172143Z 14003KT 11/M06 A301 RMK A01 T01061059  RH  031%=      5-min Rain = 0
KARS 172144Z 12003KT 11/M06 A301 RMK A01 T01071060  RH  030%=      5-min Rain = 0
KARS 172145Z 11002KT 10/M06 A301 RMK A01 T01041064  RH  030%=      5-min Rain = 0
KARS 172146Z 12001KT 10/M06 A301 RMK A01 T01031064  RH  030%=      5-min Rain = 0
KARS 172147Z 15001KT 10/M06 A301 RMK A01 T01041063  RH  030%=      5-min Rain = 0
KARS 172148Z 12002KT 11/M06 A301 RMK A01 T01051062  RH  030%=      5-min Rain = 0
KARS 172149Z 09003KT 11/M06 A301 RMK A01 T01071061  RH  030%=      5-min Rain = 0
KARS 172150Z 14005KT 11/M06 A301 RMK A01 T01061057  RH  031%=      5-min Rain = 0
KARS 172151Z 15004KT 11/M06 A301 RMK A01 T01051059  RH  031%=      5-min Rain = 0
KARS 172152Z 15004KT 10/M06 A301 RMK A01 T01041060  RH  031%=      5-min Rain = 0
KARS 172153Z 15003KT 10/M06 A301 RMK A01 T01031058  RH  032%=      5-min Rain = 0
KARS 172154Z 16003KT 10/M06 A301 RMK A01 T01031059  RH  032%=      5-min Rain = 0
KARS 172155Z 14002KT 10/M06 A301 RMK A01 T01031061  RH  031%=      5-min Rain = 0
KARS 172156Z 16002KT 10/M06 A301 RMK A01 T01021060  RH  031%=      5-min Rain = 0
KARS 172157Z 18001KT 10/M06 A301 RMK A01 T01031061  RH  031%=      5-min Rain = 0
KARS 172158Z 20001KT 10/M06 A301 RMK A01 T01031062  RH  031%=      5-min Rain = 0
KARS 172159Z 20001KT 10/M06 A301 RMK A01 T01031062  RH  031%=      5-min Rain = 0
KARS 172200Z 23002KT 10/M06 A301 RMK A01 T01041062  RH  031%=      5-min Rain = 0
KARS 172201Z 28002KT 10/M06 A3009 RMK A01 T01041063  RH  030%=      5-min Rain = 0
KARS 172202Z 30001KT 10/M06 A3009 RMK A01 T01031063  RH  031%=      5-min Rain = 0
KARS 172203Z 30001KT 10/M06 A3009 RMK A01 T01021063  RH  031%=      5-min Rain = 0
KARS 172204Z 31002KT 10/M06 A3009 RMK A01 T01021062  RH  031%=      5-min Rain = 0
KARS 172205Z 30001KT 10/M06 A3009 RMK A01 T01031063  RH  030%=      5-min Rain = 0
KARS 172206Z 00001KT 10/M06 A3009 RMK A01 T01031063  RH  031%=      5-min Rain = 0
KARS 172207Z 02001KT 10/M06 A3009 RMK A01 T01021064  RH  031%=      5-min Rain = 0
KARS 172208Z 36000KT 10/M06 A3009 RMK A01 T01021063  RH  031%=      5-min Rain = 0
KARS 172209Z 05000KT 10/M06 A3009 RMK A01 T01041060  RH  031%=      5-min Rain = 0
KARS 172210Z 20000KT 11/M06 A3009 RMK A01 T01051061  RH  031%=      5-min Rain = 0
KARS 172211Z 16002KT 11/M06 A3009 RMK A01 T01071061  RH  030%=      5-min Rain = 0
KARS 172212Z 17002KT 11/M06 A3009 RMK A01 T01081060  RH  030%=      5-min Rain = 0
KARS 172213Z 19001KT 11/M06 A3009 RMK A01 T01081061  RH  030%=      5-min Rain = 0
KARS 172214Z 18002KT 11/M06 A3009 RMK A01 T01081060  RH  030%=      5-min Rain = 0
KARS 172215Z 17002KT 11/M06 A3009 RMK A01 T01081060  RH  030%=      5-min Rain = 0
KARS 172216Z 16001KT 11/M06 A3009 RMK A01 T01071058  RH  031%=      5-min Rain = 0
KARS 172217Z 15004KT 11/M06 A3009 RMK A01 T01061059  RH  031%=      5-min Rain = 0
KARS 172218Z 17008KT 11/M06 A3009 RMK A01 T01061057  RH  032%=      5-min Rain = 0
KARS 172219Z 18005KT 10/M06 A3009 RMK A01 T01041058  RH  031%=      5-min Rain = 0
KARS 172220Z 18006KT 10/M06 A3009 RMK A01 T01031058  RH  032%=      5-min Rain = 0
KARS 172221Z 18004KT 10/M06 A3009 RMK A01 T01031060  RH  031%=      5-min Rain = 0
KARS 172222Z 18002KT 10/M06 A3009 RMK A01 T01011061  RH  031%=      5-min Rain = 0
KARS 172223Z 16003KT 10/M06 A3009 RMK A01 T01011060  RH  032%=      5-min Rain = 0
KARS 172224Z 16002KT 10/M06 A3009 RMK A01 T01021061  RH  031%=      5-min Rain = 0
KARS 172225Z 16003KT 10/M06 A3009 RMK A01 T01021060  RH  032%=      5-min Rain = 0
KARS 172226Z 17005KT 10/M06 A3009 RMK A01 T01021059  RH  032%=      5-min Rain = 0
KARS 172227Z 17005KT 10/M06 A3009 RMK A01 T01021060  RH  031%=      5-min Rain = 0
KARS 172228Z 17004KT 10/M06 A3009 RMK A01 T01011060  RH  032%=      5-min Rain = 0
KARS 172229Z 18003KT 10/M06 A3009 RMK A01 T01011060  RH  032%=      5-min Rain = 0
KARS 172230Z 16002KT 10/M06 A3009 RMK A01 T01011060  RH  032%=      5-min Rain = 0
KARS 172231Z 18003KT 10/M06 A3009 RMK A01 T01011061  RH  031%=      5-min Rain = 0
KARS 172232Z 19003KT 10/M06 A3009 RMK A01 T01021061  RH  031%=      5-min Rain = 0
KARS 172233Z 17004KT 10/M06 A3009 RMK A01 T01021060  RH  031%=      5-min Rain = 0
KARS 172234Z 16004KT 10/M06 A3009 RMK A01 T01031060  RH  031%=      5-min Rain = 0
KARS 172235Z 17003KT 10/M06 A3009 RMK A01 T01021061  RH  031%=      5-min Rain = 0
KARS 172236Z 20002KT 10/M06 A3009 RMK A01 T01011061  RH  031%=      5-min Rain = 0
KARS 172237Z 22002KT 10/M06 A3009 RMK A01 T01011061  RH  031%=      5-min Rain = 0
KARS 172238Z 20002KT 10/M06 A3009 RMK A01 T01011062  RH  031%=      5-min Rain = 0
KARS 172239Z 16003KT 10/M06 A3009 RMK A01 T01021061  RH  031%=      5-min Rain = 0
KARS 172240Z 15002KT 10/M06 A3009 RMK A01 T01021061  RH  031%=      5-min Rain = 0
KARS 172241Z 14002KT 10/M06 A3009 RMK A01 T01021062  RH  031%=      5-min Rain = 0
KARS 172242Z 16003KT 10/M06 A3009 RMK A01 T01021061  RH  031%=      5-min Rain = 0
KARS 172243Z 16002KT 10/M06 A3009 RMK A01 T01011062  RH  031%=      5-min Rain = 0
KARS 172244Z 16002KT 10/M06 A3009 RMK A01 T01011061  RH  031%=      5-min Rain = 0
KARS 172245Z 14001KT 10/M06 A3009 RMK A01 T01021061  RH  031%=      5-min Rain = 0
KARS 172246Z 18004KT 10/M06 A3009 RMK A01 T01031060  RH  031%=      5-min Rain = 0
KARS 172247Z 18006KT 10/M06 A3009 RMK A01 T01041058  RH  032%=      5-min Rain = 0
KARS 172248Z 17005KT 10/M06 A3009 RMK A01 T01021060  RH  031%=      5-min Rain = 0
KARS 172249Z 18005KT 10/M06 A3008 RMK A01 T01001057  RH  032%=      5-min Rain = 0
KARS 172250Z 18005KT 10/M06 A3008 RMK A01 T01001058  RH  032%=      5-min Rain = 0
KARS 172251Z 19005KT 10/M06 A3008 RMK A01 T01001059  RH  032%=      5-min Rain = 0
KARS 172252Z 19004KT 10/M06 A3008 RMK A01 T00991060  RH  032%=      5-min Rain = 0
KARS 172253Z 20005KT 10/M06 A3008 RMK A01 T00981058  RH  033%=      5-min Rain = 0
KARS 172254Z 20005KT 10/M06 A3008 RMK A01 T00981060  RH  032%=      5-min Rain = 0
KARS 172255Z 20005KT 10/M06 A3008 RMK A01 T00971061  RH  032%=      5-min Rain = 0
KARS 172256Z 20006KT 10/M06 A3008 RMK A01 T00971059  RH  033%=      5-min Rain = 0
KARS 172257Z 20005KT 10/M06 A3008 RMK A01 T00961060  RH  033%=      5-min Rain = 0
KARS 172258Z 20004KT 10/M06 A3008 RMK A01 T00961060  RH  033%=      5-min Rain = 0
KARS 172259Z 20003KT 10/M06 A3008 RMK A01 T00971061  RH  032%=      5-min Rain = 0
KARS 172300Z 19005KT 10/M06 A3008 RMK A01 T00971059  RH  033%=      5-min Rain = 0
KARS 172301Z 20005KT 10/M06 A3008 RMK A01 T00971060  RH  033%=      5-min Rain = 0
KARS 172302Z 20005KT 10/M06 A3008 RMK A01 T00971060  RH  032%=      5-min Rain = 0
KARS 172303Z 19004KT 10/M06 A3008 RMK A01 T00971060  RH  032%=      5-min Rain = 0
KARS 172304Z 19003KT 10/M06 A3008 RMK A01 T00971061  RH  032%=      5-min Rain = 0
KARS 172305Z 19003KT 10/M06 A3008 RMK A01 T00971060  RH  033%=      5-min Rain = 0
KARS 172306Z 19004KT 10/M06 A3008 RMK A01 T00971059  RH  033%=      5-min Rain = 0
KARS 172307Z 18005KT 10/M06 A3008 RMK A01 T00981058  RH  033%=      5-min Rain = 0
KARS 172308Z 18005KT 10/M06 A3008 RMK A01 T00981059  RH  033%=      5-min Rain = 0
KARS 172309Z 18005KT 10/M06 A3008 RMK A01 T00981057  RH  033%=      5-min Rain = 0
KARS 172310Z 17006KT 10/M06 A3008 RMK A01 T00981057  RH  033%=      5-min Rain = 0
KARS 172311Z 17005KT 10/M06 A3008 RMK A01 T00971061  RH  032%=      5-min Rain = 0
KARS 172312Z 18005KT 10/M06 A3008 RMK A01 T00961060  RH  033%=      5-min Rain = 0
KARS 172313Z 17006KT 10/M06 A3008 RMK A01 T00951059  RH  033%=      5-min Rain = 0
KARS 172314Z 17006KT 09/M06 A3008 RMK A01 T00941059  RH  033%=      5-min Rain = 0
KARS 172315Z 17005KT 09/M06 A3008 RMK A01 T00931060  RH  033%=      5-min Rain = 0
KARS 172316Z 18005KT 09/M06 A3008 RMK A01 T00931057  RH  034%=      5-min Rain = 0
KARS 172317Z 18005KT 09/M06 A3008 RMK A01 T00931057  RH  034%=      5-min Rain = 0
KARS 172318Z 18005KT 09/M06 A3008 RMK A01 T00931057  RH  034%=      5-min Rain = 0
KARS 172319Z 17007KT 09/M06 A3008 RMK A01 T00921057  RH  034%=      5-min Rain = 0
KARS 172320Z 18007KT 09/M06 A3008 RMK A01 T00921058  RH  034%=      5-min Rain = 0
KARS 172321Z 18006KT 09/M06 A3008 RMK A01 T00921059  RH  034%=      5-min Rain = 0
KARS 172322Z 19006KT 09/M06 A3008 RMK A01 T00911058  RH  034%=      5-min Rain = 0
KARS 172323Z 19006KT 09/M06 A3008 RMK A01 T00901057  RH  035%=      5-min Rain = 0
KARS 172324Z 18006KT 09/M06 A3008 RMK A01 T00901058  RH  035%=      5-min Rain = 0
KARS 172325Z 18006KT 09/M06 A3008 RMK A01 T00901057  RH  035%=      5-min Rain = 0
KARS 172326Z 18006KT 09/M06 A3008 RMK A01 T00901057  RH  035%=      5-min Rain = 0
KARS 172327Z 18007KT 09/M06 A3008 RMK A01 T00901057  RH  035%=      5-min Rain = 0
KARS 172328Z 19007KT 09/M06 A3008 RMK A01 T00891057  RH  035%=      5-min Rain = 0
KARS 172329Z 19007KT 09/M06 A3008 RMK A01 T00891056  RH  035%=      5-min Rain = 0
KARS 172330Z 19006KT 09/M06 A3008 RMK A01 T00881056  RH  036%=      5-min Rain = 0
KARS 172331Z 19005KT 09/M06 A3008 RMK A01 T00881055  RH  036%=      5-min Rain = 0
KARS 172332Z 19005KT 09/M05 A3008 RMK A01 T00871054  RH  036%=      5-min Rain = 0
KARS 172333Z 19005KT 09/M05 A3008 RMK A01 T00871054  RH  036%=      5-min Rain = 0
KARS 172334Z 19005KT 09/M05 A3008 RMK A01 T00861053  RH  037%=      5-min Rain = 0
KARS 172335Z 19005KT 09/M05 A3008 RMK A01 T00851053  RH  037%=      5-min Rain = 0
KARS 172336Z 19006KT 09/M05 A3008 RMK A01 T00851054  RH  037%=      5-min Rain = 0
KARS 172337Z 19006KT 08/M06 A3008 RMK A01 T00841055  RH  037%=      5-min Rain = 0
KARS 172338Z 19007KT 08/M05 A3008 RMK A01 T00841054  RH  037%=      5-min Rain = 0
KARS 172339Z 19007KT 08/M05 A3008 RMK A01 T00831054  RH  037%=      5-min Rain = 0
KARS 172340Z 19007KT 08/M05 A3008 RMK A01 T00821053  RH  038%=      5-min Rain = 0
KARS 172341Z 19007KT 08/M05 A3008 RMK A01 T00811052  RH  038%=      5-min Rain = 0
KARS 172342Z 19008KT 08/M05 A3008 RMK A01 T00801051  RH  039%=      5-min Rain = 0
KARS 172343Z 19007KT 08/M05 A3008 RMK A01 T00791051  RH  039%=      5-min Rain = 0
KARS 172344Z 19008KT 08/M05 A3008 RMK A01 T00781051  RH  040%=      5-min Rain = 0
KARS 172345Z 19008KT 08/M05 A3008 RMK A01 T00771051  RH  040%=      5-min Rain = 0
KARS 172346Z 19008KT 08/M05 A3008 RMK A01 T00761051  RH  040%=      5-min Rain = 0
KARS 172347Z 19008KT 08/M05 A3008 RMK A01 T00751052  RH  040%=      5-min Rain = 0
KARS 172348Z 19008KT 08/M05 A3008 RMK A01 T00751052  RH  040%=      5-min Rain = 0
KARS 172349Z 19008KT 07/M05 A3008 RMK A01 T00741051  RH  040%=      5-min Rain = 0
KARS 172350Z 19008KT 07/M05 A3008 RMK A01 T00731051  RH  041%=      5-min Rain = 0
KARS 172351Z 19008KT 07/M05 A3008 RMK A01 T00721051  RH  041%=      5-min Rain = 0
KARS 172352Z 19008KT 07/M05 A3008 RMK A01 T00711051  RH  042%=      5-min Rain = 0
KARS 172353Z 19008KT 07/M05 A3008 RMK A01 T00701051  RH  042%=      5-min Rain = 0
KARS 172354Z 19008KT 07/M05 A3008 RMK A01 T00681050  RH  043%=      5-min Rain = 0
KARS 172355Z 19009KT 07/M05 A3008 RMK A01 T00671050  RH  043%=      5-min Rain = 0
KARS 172356Z 19009KT 07/M05 A3008 RMK A01 T00661050  RH  043%=      5-min Rain = 0
KARS 172357Z 19009KT 07/M05 A3008 RMK A01 T00661049  RH  043%=      5-min Rain = 0
KARS 172358Z 19009KT 07/M05 A3008 RMK A01 T00661049  RH  044%=      5-min Rain = 0
KARS 172359Z 19009KT 07/M05 A3008 RMK A01 T00651049  RH  044%=      5-min Rain = 0
KARS 180000Z 19008KT 06/M05 A3008 RMK A01 T00641049  RH  044%=      5-min Rain = 0
KARS 180001Z 19008KT 06/M05 A3008 RMK A01 T00631049  RH  045%=      5-min Rain = 0
KARS 180002Z 19008KT 06/M05 A3008 RMK A01 T00621048  RH  045%=      5-min Rain = 0
KARS 180003Z 19008KT 06/M05 A3008 RMK A01 T00601048  RH  046%=      5-min Rain = 0
KARS 180004Z 19008KT 06/M05 A3008 RMK A01 T00581048  RH  046%=      5-min Rain = 0
KARS 180005Z 19007KT 06/M05 A3008 RMK A01 T00571049  RH  047%=      5-min Rain = 0
KARS 180006Z 19007KT 06/M05 A3008 RMK A01 T00551049  RH  047%=      5-min Rain = 0
KARS 180007Z 18007KT 05/M05 A3008 RMK A01 T00531049  RH  047%=      5-min Rain = 0
KARS 180008Z 19008KT 05/M05 A3008 RMK A01 T00521049  RH  048%=      5-min Rain = 0
KARS 180009Z 19008KT 05/M05 A3008 RMK A01 T00501050  RH  048%=      5-min Rain = 0
KARS 180010Z 19008KT 05/M05 A3008 RMK A01 T00491050  RH  049%=      5-min Rain = 0
KARS 180011Z 19007KT 05/M05 A3008 RMK A01 T00481050  RH  049%=      5-min Rain = 0
KARS 180012Z 19008KT 05/M05 A3008 RMK A01 T00471050  RH  049%=      5-min Rain = 0
KARS 180013Z 19008KT 05/M05 A3008 RMK A01 T00461050  RH  050%=      5-min Rain = 0
KARS 180014Z 19008KT 05/M05 A3008 RMK A01 T00451050  RH  050%=      5-min Rain = 0
KARS 180015Z 19008KT 04/M05 A3008 RMK A01 T00441050  RH  051%=      5-min Rain = 0
KARS 180016Z 19008KT 04/M05 A3008 RMK A01 T00431050  RH  051%=      5-min Rain = 0
KARS 180017Z 19008KT 04/M05 A3008 RMK A01 T00421050  RH  051%=      5-min Rain = 0
KARS 180018Z 19008KT 04/M05 A3008 RMK A01 T00411050  RH  051%=      5-min Rain = 0
KARS 180019Z 19007KT 04/M05 A3008 RMK A01 T00391051  RH  052%=      5-min Rain = 0
KARS 180020Z 19007KT 04/M05 A3008 RMK A01 T00381051  RH  052%=      5-min Rain = 0
KARS 180021Z 19007KT 04/M05 A3008 RMK A01 T00361051  RH  053%=      5-min Rain = 0
KARS 180022Z 19006KT 04/M05 A3008 RMK A01 T00351051  RH  053%=      5-min Rain = 0
KARS 180023Z 19006KT 04/M05 A3008 RMK A01 T00351051  RH  053%=      5-min Rain = 0
KARS 180024Z 19006KT 03/M05 A3008 RMK A01 T00341051  RH  054%=      5-min Rain = 0
KARS 180025Z 19006KT 03/M05 A3008 RMK A01 T00341051  RH  054%=      5-min Rain = 0
KARS 180026Z 19006KT 03/M05 A3008 RMK A01 T00341051  RH  054%=      5-min Rain = 0
KARS 180027Z 19006KT 03/M05 A3008 RMK A01 T00341051  RH  054%=      5-min Rain = 0
KARS 180028Z 19006KT 03/M05 A3008 RMK A01 T00341051  RH  054%=      5-min Rain = 0
KARS 180029Z 19006KT 03/M05 A3008 RMK A01 T00341051  RH  054%=      5-min Rain = 0
KARS 180030Z 19006KT 03/M05 A3008 RMK A01 T00331051  RH  054%=      5-min Rain = 0
KARS 180031Z 19007KT 03/M05 A3008 RMK A01 T00331052  RH  054%=      5-min Rain = 0
KARS 180032Z 19007KT 03/M05 A3008 RMK A01 T00311052  RH  054%=      5-min Rain = 0
KARS 180033Z 19007KT 03/M05 A3008 RMK A01 T00291052  RH  055%=      5-min Rain = 0
KARS 180034Z 19007KT 03/M05 A3008 RMK A01 T00291052  RH  055%=      5-min Rain = 0
KARS 180035Z 19007KT 03/M05 A3008 RMK A01 T00281052  RH  056%=      5-min Rain = 0
KARS 180036Z 19007KT 03/M05 A3008 RMK A01 T00271052  RH  056%=      5-min Rain = 0
KARS 180037Z 19007KT 03/M05 A3008 RMK A01 T00271052  RH  056%=      5-min Rain = 0
KARS 180038Z 19007KT 03/M05 A3008 RMK A01 T00271052  RH  056%=      5-min Rain = 0
KARS 180039Z 19007KT 03/M05 A3008 RMK A01 T00261052  RH  057%=      5-min Rain = 0
KARS 180040Z 19007KT 03/M05 A3008 RMK A01 T00261051  RH  057%=      5-min Rain = 0
KARS 180041Z 19008KT 03/M05 A3008 RMK A01 T00261051  RH  057%=      5-min Rain = 0
KARS 180042Z 19008KT 03/M05 A3008 RMK A01 T00261051  RH  057%=      5-min Rain = 0
KARS 180043Z 19008KT 03/M05 A3008 RMK A01 T00261051  RH  057%=      5-min Rain = 0
KARS 180044Z 19008KT 03/M05 A3008 RMK A01 T00261050  RH  057%=      5-min Rain = 0
KARS 180045Z 19008KT 03/M05 A3008 RMK A01 T00251051  RH  057%=      5-min Rain = 0
KARS 180046Z 19007KT 02/M05 A3008 RMK A01 T00241051  RH  058%=      5-min Rain = 0
KARS 180047Z 19007KT 02/M05 A3008 RMK A01 T00231051  RH  058%=      5-min Rain = 0
KARS 180048Z 19008KT 02/M05 A3008 RMK A01 T00231051  RH  058%=      5-min Rain = 0
KARS 180049Z 19008KT 02/M05 A3008 RMK A01 T00231051  RH  058%=      5-min Rain = 0
KARS 180050Z 19008KT 02/M05 A3008 RMK A01 T00231051  RH  058%=      5-min Rain = 0
KARS 180051Z 19008KT 02/M05 A3008 RMK A01 T00221051  RH  058%=      5-min Rain = 0
KARS 180052Z 19008KT 02/M05 A3008 RMK A01 T00221051  RH  058%=      5-min Rain = 0
KARS 180053Z 19008KT 02/M05 A3008 RMK A01 T00221051  RH  059%=      5-min Rain = 0
KARS 180054Z 19008KT 02/M05 A3008 RMK A01 T00211051  RH  059%=      5-min Rain = 0
KARS 180055Z 19008KT 02/M05 A3008 RMK A01 T00211051  RH  059%=      5-min Rain = 0
KARS 180056Z 19008KT 02/M05 A3008 RMK A01 T00201051  RH  059%=      5-min Rain = 0
KARS 180057Z 19008KT 02/M05 A3008 RMK A01 T00191051  RH  060%=      5-min Rain = 0
KARS 180058Z 19007KT 02/M05 A3008 RMK A01 T00181051  RH  060%=      5-min Rain = 0
KARS 180059Z 19007KT 02/M05 A3008 RMK A01 T00171051  RH  060%=      5-min Rain = 0
KARS 180100Z 19007KT 02/M05 A3008 RMK A01 T00171051  RH  060%=      5-min Rain = 0
KARS 180101Z 19007KT 02/M05 A3008 RMK A01 T00171051  RH  060%=      5-min Rain = 0
KARS 180102Z 19007KT 02/M05 A3008 RMK A01 T00181051  RH  060%=      5-min Rain = 0
KARS 180103Z 19007KT 02/M05 A3008 RMK A01 T00191051  RH  060%=      5-min Rain = 0
KARS 180104Z 19008KT 02/M05 A3008 RMK A01 T00201051  RH  060%=      5-min Rain = 0
KARS 180105Z 19008KT 02/M05 A3008 RMK A01 T00211051  RH  059%=      5-min Rain = 0
KARS 180106Z 19008KT 02/M05 A3008 RMK A01 T00211051  RH  059%=      5-min Rain = 0
KARS 180107Z 19007KT 02/M05 A3008 RMK A01 T00221050  RH  059%=      5-min Rain = 0
KARS 180108Z 19007KT 02/M05 A3008 RMK A01 T00221050  RH  059%=      5-min Rain = 0
KARS 180109Z 20007KT 02/M05 A3008 RMK A01 T00231050  RH  059%=      5-min Rain = 0
KARS 180110Z 19007KT 02/M05 A3008 RMK A01 T00231050  RH  058%=      5-min Rain = 0
KARS 180111Z 19007KT 02/M05 A3008 RMK A01 T00241049  RH  058%=      5-min Rain = 0
KARS 180112Z 19007KT 03/M05 A3008 RMK A01 T00251049  RH  058%=      5-min Rain = 0
KARS 180113Z 19007KT 03/M05 A3008 RMK A01 T00261049  RH  058%=      5-min Rain = 0
KARS 180114Z 19007KT 03/M05 A3008 RMK A01 T00261049  RH  058%=      5-min Rain = 0
KARS 180115Z 18007KT 03/M05 A3008 RMK A01 T00261049  RH  058%=      5-min Rain = 0
KARS 180116Z 18006KT 03/M05 A3008 RMK A01 T00261049  RH  058%=      5-min Rain = 0
KARS 180117Z 18007KT 03/M05 A3008 RMK A01 T00261049  RH  058%=      5-min Rain = 0
KARS 180118Z 18007KT 03/M05 A3008 RMK A01 T00261049  RH  058%=      5-min Rain = 0
KARS 180119Z 18008KT 03/M05 A3008 RMK A01 T00251049  RH  058%=      5-min Rain = 0
KARS 180120Z 18008KT 02/M05 A3008 RMK A01 T00241050  RH  058%=      5-min Rain = 0
KARS 180121Z 18008KT 02/M05 A3008 RMK A01 T00231049  RH  059%=      5-min Rain = 0
KARS 180122Z 18008KT 02/M05 A3008 RMK A01 T00221048  RH  059%=      5-min Rain = 0
KARS 180123Z 18008KT 02/M05 A3008 RMK A01 T00221048  RH  060%=      5-min Rain = 0
KARS 180124Z 18008KT 02/M05 A3008 RMK A01 T00211048  RH  060%=      5-min Rain = 0
KARS 180125Z 18008KT 02/M05 A3008 RMK A01 T00201047  RH  061%=      5-min Rain = 0
KARS 180126Z 18007KT 02/M05 A3008 RMK A01 T00191047  RH  061%=      5-min Rain = 0
KARS 180127Z 18007KT 02/M05 A3008 RMK A01 T00181047  RH  062%=      5-min Rain = 0
KARS 180128Z 18007KT 02/M05 A3008 RMK A01 T00171048  RH  062%=      5-min Rain = 0
KARS 180129Z 18007KT 02/M05 A3008 RMK A01 T00161047  RH  063%=      5-min Rain = 0
KARS 180130Z 18007KT 02/M05 A3008 RMK A01 T00171047  RH  063%=      5-min Rain = 0
KARS 180131Z 18007KT 02/M05 A3008 RMK A01 T00171047  RH  063%=      5-min Rain = 0
KARS 180132Z 18008KT 02/M05 A3008 RMK A01 T00171048  RH  062%=      5-min Rain = 0
KARS 180133Z 18008KT 02/M05 A3008 RMK A01 T00171048  RH  062%=      5-min Rain = 0
KARS 180134Z 18008KT 02/M05 A3007 RMK A01 T00161048  RH  062%=      5-min Rain = 0
KARS 180135Z 18008KT 02/M05 A3007 RMK A01 T00151049  RH  062%=      5-min Rain = 0
KARS 180136Z 18009KT 01/M05 A3007 RMK A01 T00141050  RH  063%=      5-min Rain = 0
KARS 180137Z 18009KT 01/M05 A3007 RMK A01 T00131049  RH  063%=      5-min Rain = 0
KARS 180138Z 18008KT 01/M05 A3007 RMK A01 T00141049  RH  063%=      5-min Rain = 0
KARS 180139Z 18009KT 02/M05 A3007 RMK A01 T00151048  RH  063%=      5-min Rain = 0
KARS 180140Z 18009KT 02/M05 A3007 RMK A01 T00161048  RH  063%=      5-min Rain = 0
KARS 180141Z 18008KT 02/M05 A3007 RMK A01 T00161047  RH  063%=      5-min Rain = 0
KARS 180142Z 18008KT 02/M05 A3007 RMK A01 T00161047  RH  063%=      5-min Rain = 0
KARS 180143Z 19007KT 02/M05 A3007 RMK A01 T00151048  RH  063%=      5-min Rain = 0
KARS 180144Z 19008KT 01/M05 A3007 RMK A01 T00131049  RH  063%=      5-min Rain = 0
KARS 180145Z 18008KT 01/M05 A3007 RMK A01 T00111049  RH  064%=      5-min Rain = 0
KARS 180146Z 18008KT 01/M05 A3007 RMK A01 T00091050  RH  065%=      5-min Rain = 0
KARS 180147Z 18008KT 01/M05 A3007 RMK A01 T00091050  RH  065%=      5-min Rain = 0
KARS 180148Z 18008KT 01/M05 A3007 RMK A01 T00081049  RH  065%=      5-min Rain = 0
KARS 180149Z 18008KT 01/M05 A3007 RMK A01 T00091049  RH  065%=      5-min Rain = 0
KARS 180150Z 18008KT 01/M05 A3007 RMK A01 T00091049  RH  065%=      5-min Rain = 0
KARS 180151Z 18008KT 01/M05 A3007 RMK A01 T00091049  RH  065%=      5-min Rain = 0
KARS 180152Z 18007KT 01/M05 A3007 RMK A01 T00091049  RH  065%=      5-min Rain = 0
KARS 180153Z 19007KT 01/M05 A3006 RMK A01 T00091049  RH  065%=      5-min Rain = 0
KARS 180154Z 18006KT 01/M05 A3006 RMK A01 T00091049  RH  065%=      5-min Rain = 0
KARS 180155Z 18006KT 01/M05 A3006 RMK A01 T00081049  RH  065%=      5-min Rain = 0
KARS 180156Z 18006KT 01/M05 A3007 RMK A01 T00071050  RH  066%=      5-min Rain = 0
KARS 180157Z 18006KT 01/M05 A3006 RMK A01 T00061050  RH  066%=      5-min Rain = 0
KARS 180158Z 18006KT 01/M05 A3006 RMK A01 T00051050  RH  066%=      5-min Rain = 0
KARS 180159Z 18006KT 01/M05 A3007 RMK A01 T00051051  RH  066%=      5-min Rain = 0
KARS 180200Z 18007KT 01/M05 A3007 RMK A01 T00051050  RH  067%=      5-min Rain = 0
KARS 180201Z 18007KT 01/M05 A3007 RMK A01 T00051050  RH  067%=      5-min Rain = 0
KARS 180202Z 19007KT 01/M05 A3007 RMK A01 T00051050  RH  066%=      5-min Rain = 0
KARS 180203Z 19007KT 01/M05 A3007 RMK A01 T00071050  RH  066%=      5-min Rain = 0
KARS 180204Z 19008KT 01/M05 A3007 RMK A01 T00091049  RH  065%=      5-min Rain = 0
KARS 180205Z 19008KT 01/M05 A3007 RMK A01 T00091050  RH  065%=      5-min Rain = 0
KARS 180206Z 20007KT 01/M05 A3007 RMK A01 T00091050  RH  065%=      5-min Rain = 0
KARS 180207Z 20007KT 01/M05 A3007 RMK A01 T00091049  RH  065%=      5-min Rain = 0
KARS 180208Z 20007KT 01/M05 A3007 RMK A01 T00091049  RH  065%=      5-min Rain = 0
KARS 180209Z 20007KT 01/M05 A3007 RMK A01 T00101048  RH  065%=      5-min Rain = 0
KARS 180210Z 20007KT 01/M05 A3007 RMK A01 T00111048  RH  065%=      5-min Rain = 0
KARS 180211Z 20007KT 01/M05 A3007 RMK A01 T00111048  RH  065%=      5-min Rain = 0
KARS 180212Z 20007KT 01/M05 A3007 RMK A01 T00121048  RH  065%=      5-min Rain = 0
KARS 180213Z 20007KT 01/M05 A3007 RMK A01 T00121048  RH  064%=      5-min Rain = 0
KARS 180214Z 20008KT 01/M05 A3007 RMK A01 T00121048  RH  064%=      5-min Rain = 0
KARS 180215Z 20007KT 01/M05 A3007 RMK A01 T00121048  RH  064%=      5-min Rain = 0
KARS 180216Z 20007KT 01/M05 A3007 RMK A01 T00111047  RH  065%=      5-min Rain = 0
KARS 180217Z 20007KT 01/M05 A3007 RMK A01 T00111047  RH  065%=      5-min Rain = 0
KARS 180218Z 20007KT 01/M05 A3007 RMK A01 T00121047  RH  065%=      5-min Rain = 0
KARS 180219Z 20006KT 01/M05 A3007 RMK A01 T00121047  RH  065%=      5-min Rain = 0
KARS 180220Z 19006KT 01/M05 A3007 RMK A01 T00141047  RH  064%=      5-min Rain = 0
KARS 180221Z 19006KT 01/M05 A3007 RMK A01 T00141047  RH  064%=      5-min Rain = 0
KARS 180222Z 19006KT 02/M05 A3007 RMK A01 T00151047  RH  063%=      5-min Rain = 0
KARS 180223Z 19007KT 02/M05 A3007 RMK A01 T00161047  RH  063%=      5-min Rain = 0
KARS 180224Z 19007KT 02/M05 A3007 RMK A01 T00161047  RH  063%=      5-min Rain = 0
KARS 180225Z 19007KT 02/M05 A3007 RMK A01 T00161047  RH  063%=      5-min Rain = 0
KARS 180226Z 20007KT 02/M05 A3006 RMK A01 T00161047  RH  063%=      5-min Rain = 0
KARS 180227Z 20007KT 02/M05 A3006 RMK A01 T00161047  RH  063%=      5-min Rain = 0
KARS 180228Z 20007KT 02/M05 A3006 RMK A01 T00151047  RH  063%=      5-min Rain = 0
KARS 180229Z 20006KT 01/M05 A3006 RMK A01 T00141048  RH  064%=      5-min Rain = 0
KARS 180230Z 20006KT 01/M05 A3006 RMK A01 T00131047  RH  064%=      5-min Rain = 0
KARS 180231Z 20006KT 01/M05 A3006 RMK A01 T00131047  RH  064%=      5-min Rain = 0
KARS 180232Z 20006KT 01/M05 A3006 RMK A01 T00131047  RH  064%=      5-min Rain = 0
KARS 180233Z 20006KT 01/M05 A3006 RMK A01 T00131047  RH  064%=      5-min Rain = 0
KARS 180234Z 20006KT 01/M05 A3006 RMK A01 T00131047  RH  064%=      5-min Rain = 0
KARS 180235Z 20006KT 01/M05 A3006 RMK A01 T00131047  RH  064%=      5-min Rain = 0
KARS 180236Z 19007KT 01/M05 A3006 RMK A01 T00131047  RH  064%=      5-min Rain = 0
KARS 180237Z 19007KT 01/M05 A3006 RMK A01 T00141047  RH  064%=      5-min Rain = 0
KARS 180238Z 19007KT 01/M05 A3006 RMK A01 T00141047  RH  064%=      5-min Rain = 0
KARS 180239Z 19007KT 01/M05 A3006 RMK A01 T00131048  RH  064%=      5-min Rain = 0
KARS 180240Z 19007KT 01/M05 A3006 RMK A01 T00111048  RH  064%=      5-min Rain = 0
KARS 180241Z 19007KT 01/M05 A3006 RMK A01 T00101048  RH  065%=      5-min Rain = 0
KARS 180242Z 19007KT 01/M05 A3006 RMK A01 T00091048  RH  066%=      5-min Rain = 0
KARS 180243Z 19007KT 01/M05 A3006 RMK A01 T00081048  RH  066%=      5-min Rain = 0
KARS 180244Z 19007KT 01/M05 A3006 RMK A01 T00081048  RH  066%=      5-min Rain = 0
KARS 180245Z 19008KT 01/M05 A3005 RMK A01 T00071048  RH  067%=      5-min Rain = 0
KARS 180246Z 19008KT 01/M05 A3005 RMK A01 T00071048  RH  067%=      5-min Rain = 0
KARS 180247Z 19008KT 01/M05 A3005 RMK A01 T00071048  RH  067%=      5-min Rain = 0
KARS 180248Z 19007KT 01/M05 A3005 RMK A01 T00071048  RH  067%=      5-min Rain = 0
KARS 180249Z 19007KT 01/M05 A3006 RMK A01 T00071048  RH  066%=      5-min Rain = 0
KARS 180250Z 19007KT 01/M05 A3006 RMK A01 T00071048  RH  066%=      5-min Rain = 0
KARS 180251Z 19007KT 01/M05 A3006 RMK A01 T00081048  RH  066%=      5-min Rain = 0
KARS 180252Z 18007KT 01/M05 A3005 RMK A01 T00081048  RH  066%=      5-min Rain = 0
KARS 180253Z 18007KT 01/M05 A3005 RMK A01 T00081048  RH  066%=      5-min Rain = 0
KARS 180254Z 18008KT 01/M05 A3005 RMK A01 T00081048  RH  066%=      5-min Rain = 0
KARS 180255Z 18008KT 01/M05 A3005 RMK A01 T00081049  RH  066%=      5-min Rain = 0
KARS 180256Z 18007KT 01/M05 A3005 RMK A01 T00071049  RH  066%=      5-min Rain = 0
KARS 180257Z 18007KT 01/M05 A3005 RMK A01 T00071049  RH  066%=      5-min Rain = 0
KARS 180258Z 18007KT 01/M05 A3005 RMK A01 T00071049  RH  066%=      5-min Rain = 0
KARS 180259Z 18007KT 01/M05 A3005 RMK A01 T00071049  RH  066%=      5-min Rain = 0
KARS 180300Z 19007KT 01/M05 A3005 RMK A01 T00051051  RH  066%=      5-min Rain = 0
KARS 180301Z 19007KT 00/M05 A3005 RMK A01 T00021052  RH  067%=      5-min Rain = 0
KARS 180302Z 19006KT M00/M05 A3005 RMK A01 T10011052  RH  068%=      5-min Rain = 0
KARS 180303Z 19006KT M00/M05 A3005 RMK A01 T10021051  RH  069%=      5-min Rain = 0
KARS 180304Z 18006KT M00/M05 A3005 RMK A01 T10021051  RH  070%=      5-min Rain = 0
KARS 180305Z 18006KT M00/M05 A3005 RMK A01 T10021051  RH  070%=      5-min Rain = 0
KARS 180306Z 19007KT M00/M05 A3005 RMK A01 T10021051  RH  070%=      5-min Rain = 0
KARS 180307Z 19007KT M00/M05 A3005 RMK A01 T10011050  RH  070%=      5-min Rain = 0
KARS 180308Z 19007KT M00/M05 A3005 RMK A01 T10011050  RH  069%=      5-min Rain = 0
KARS 180309Z 19007KT 00/05 A3005 RMK A01 T00-00-51  RH  069%=      5-min Rain = 0
KARS 180310Z 19007KT 00/05 A3005 RMK A01 T00000-51  RH  069%=      5-min Rain = 0
KARS 180311Z 18007KT 00/05 A3005 RMK A01 T00000-50  RH  069%=      5-min Rain = 0
KARS 180312Z 18007KT 00/05 A3005 RMK A01 T00000-50  RH  069%=      5-min Rain = 0
KARS 180313Z 18007KT 00/M05 A3005 RMK A01 T00011050  RH  069%=      5-min Rain = 0
KARS 180314Z 18007KT 00/M05 A3005 RMK A01 T00021050  RH  068%=      5-min Rain = 0
KARS 180315Z 18007KT 00/M05 A3005 RMK A01 T00031050  RH  068%=      5-min Rain = 0
KARS 180316Z 18007KT 00/M05 A3005 RMK A01 T00021050  RH  068%=      5-min Rain = 0
KARS 180317Z 18007KT 00/M05 A3005 RMK A01 T00021049  RH  069%=      5-min Rain = 0
KARS 180318Z 18008KT 00/M05 A3005 RMK A01 T00021049  RH  069%=      5-min Rain = 0
KARS 180319Z 18008KT 00/M05 A3005 RMK A01 T00021049  RH  069%=      5-min Rain = 0
KARS 180320Z 18008KT 00/M05 A3005 RMK A01 T00011049  RH  069%=      5-min Rain = 0
KARS 180321Z 18007KT 00/M05 A3005 RMK A01 T00011049  RH  069%=      5-min Rain = 0
KARS 180322Z 18007KT 00/05 A3005 RMK A01 T00-00-49  RH  069%=      5-min Rain = 0
KARS 180323Z 18006KT M00/M05 A3005 RMK A01 T10021050  RH  070%=      5-min Rain = 0
KARS 180324Z 18006KT M00/M05 A3005 RMK A01 T10041051  RH  071%=      5-min Rain = 0
KARS 180325Z 18006KT M01/M05 A3005 RMK A01 T10051050  RH  071%=      5-min Rain = 0
KARS 180326Z 18006KT M01/M05 A3005 RMK A01 T10061050  RH  072%=      5-min Rain = 0
KARS 180327Z 18006KT M01/M05 A3005 RMK A01 T10061050  RH  072%=      5-min Rain = 0
KARS 180328Z 18006KT M01/M05 A3004 RMK A01 T10061050  RH  072%=      5-min Rain = 0
KARS 180329Z 18006KT M01/M05 A3004 RMK A01 T10061050  RH  072%=      5-min Rain = 0
KARS 180330Z 18006KT M01/M05 A3004 RMK A01 T10061050  RH  072%=      5-min Rain = 0
KARS 180331Z 18006KT M01/M05 A3004 RMK A01 T10061050  RH  072%=      5-min Rain = 0
KARS 180332Z 18006KT M01/M05 A3004 RMK A01 T10061050  RH  072%=      5-min Rain = 0
KARS 180333Z 18006KT M01/M05 A3004 RMK A01 T10061050  RH  072%=      5-min Rain = 0
KARS 180334Z 18005KT M01/M05 A3004 RMK A01 T10061050  RH  072%=      5-min Rain = 0
KARS 180335Z 18005KT M01/M05 A3004 RMK A01 T10051050  RH  072%=      5-min Rain = 0
KARS 180336Z 18005KT M01/M05 A3004 RMK A01 T10051050  RH  071%=      5-min Rain = 0
KARS 180337Z 18006KT M00/M05 A3004 RMK A01 T10041050  RH  071%=      5-min Rain = 0
KARS 180338Z 18006KT M00/M05 A3004 RMK A01 T10041050  RH  071%=      5-min Rain = 0
KARS 180339Z 18006KT M00/M05 A3004 RMK A01 T10031050  RH  071%=      5-min Rain = 0
KARS 180340Z 18006KT M00/M05 A3004 RMK A01 T10021050  RH  070%=      5-min Rain = 0
KARS 180341Z 18006KT M00/M05 A3004 RMK A01 T10011049  RH  070%=      5-min Rain = 0
KARS 180342Z 18006KT 00/05 A3004 RMK A01 T00-00-49  RH  069%=      5-min Rain = 0
KARS 180343Z 19006KT 00/05 A3004 RMK A01 T00-00-50  RH  069%=      5-min Rain = 0
KARS 180344Z 19006KT M00/M05 A3004 RMK A01 T10011050  RH  070%=      5-min Rain = 0
KARS 180345Z 19006KT M00/M05 A3004 RMK A01 T10011049  RH  070%=      5-min Rain = 0
KARS 180346Z 19006KT M00/M05 A3004 RMK A01 T10011049  RH  070%=      5-min Rain = 0
KARS 180347Z 19007KT M00/M05 A3004 RMK A01 T10011049  RH  070%=      5-min Rain = 0
KARS 180348Z 19007KT M00/M05 A3004 RMK A01 T10011049  RH  070%=      5-min Rain = 0
KARS 180349Z 19007KT M00/M05 A3004 RMK A01 T10011050  RH  070%=      5-min Rain = 0
KARS 180350Z 19007KT M00/M05 A3004 RMK A01 T10011050  RH  070%=      5-min Rain = 0
KARS 180351Z 19008KT M00/M05 A3004 RMK A01 T10011050  RH  070%=      5-min Rain = 0
KARS 180352Z 19008KT M00/M05 A3004 RMK A01 T10021050  RH  070%=      5-min Rain = 0
KARS 180353Z 18008KT M00/M05 A3003 RMK A01 T10041050  RH  071%=      5-min Rain = 0
KARS 180354Z 18008KT M01/M05 A3003 RMK A01 T10051050  RH  071%=      5-min Rain = 0
KARS 180355Z 18008KT M01/M05 A3003 RMK A01 T10061050  RH  072%=      5-min Rain = 0
KARS 180356Z 19008KT M01/M05 A3003 RMK A01 T10061050  RH  072%=      5-min Rain = 0
KARS 180357Z 18007KT M01/M05 A3003 RMK A01 T10061050  RH  072%=      5-min Rain = 0
KARS 180358Z 18007KT M01/M05 A3003 RMK A01 T10061050  RH  072%=      5-min Rain = 0
KARS 180359Z 19007KT M01/M05 A3003 RMK A01 T10071050  RH  072%=      5-min Rain = 0
KARS 180400Z 19007KT M01/M05 A3003 RMK A01 T10071050  RH  073%=      5-min Rain = 0
KARS 180401Z 19007KT M01/M05 A3003 RMK A01 T10071050  RH  073%=      5-min Rain = 0
KARS 180402Z 19007KT M01/M05 A3003 RMK A01 T10071051  RH  072%=      5-min Rain = 0
KARS 180403Z 19008KT M01/M05 A3003 RMK A01 T10071051  RH  072%=      5-min Rain = 0
KARS 180404Z 19008KT M01/M05 A3003 RMK A01 T10071050  RH  072%=      5-min Rain = 0
KARS 180405Z 19008KT M01/M05 A3003 RMK A01 T10051050  RH  072%=      5-min Rain = 0
KARS 180406Z 18007KT M01/M05 A3003 RMK A01 T10051050  RH  072%=      5-min Rain = 0
KARS 180407Z 18008KT M01/M05 A3003 RMK A01 T10051050  RH  071%=      5-min Rain = 0
KARS 180408Z 18008KT M00/M05 A3003 RMK A01 T10041050  RH  071%=      5-min Rain = 0
KARS 180409Z 18008KT M00/M05 A3003 RMK A01 T10041050  RH  071%=      5-min Rain = 0
KARS 180410Z 18008KT M00/M05 A3003 RMK A01 T10041050  RH  071%=      5-min Rain = 0
KARS 180411Z 19008KT M01/M05 A3003 RMK A01 T10051050  RH  072%=      5-min Rain = 0
KARS 180412Z 19007KT M01/M05 A3002 RMK A01 T10061051  RH  072%=      5-min Rain = 0
KARS 180413Z 19007KT M01/M05 A3002 RMK A01 T10081051  RH  072%=      5-min Rain = 0
KARS 180414Z 19007KT M01/M05 A3002 RMK A01 T10091052  RH  073%=      5-min Rain = 0
KARS 180415Z 19007KT M01/M05 A3002 RMK A01 T10121054  RH  073%=      5-min Rain = 0
KARS 180416Z 19007KT M01/M05 A3002 RMK A01 T10141054  RH  075%=      5-min Rain = 0
KARS 180417Z 18007KT M02/M05 A3002 RMK A01 T10151053  RH  076%=      5-min Rain = 0
KARS 180418Z 18007KT M02/M05 A3002 RMK A01 T10151052  RH  076%=      5-min Rain = 0
KARS 180419Z 18007KT M02/M05 A3002 RMK A01 T10151052  RH  076%=      5-min Rain = 0
KARS 180420Z 19007KT M02/M05 A3002 RMK A01 T10151052  RH  076%=      5-min Rain = 0
KARS 180421Z 19007KT M02/M05 A3002 RMK A01 T10151052  RH  076%=      5-min Rain = 0
KARS 180422Z 19007KT M02/M05 A3002 RMK A01 T10151052  RH  076%=      5-min Rain = 0
KARS 180423Z 19007KT M02/M05 A3002 RMK A01 T10151052  RH  076%=      5-min Rain = 0
KARS 180424Z 18007KT M02/M05 A3002 RMK A01 T10151052  RH  076%=      5-min Rain = 0
KARS 180425Z 19006KT M02/M05 A3002 RMK A01 T10151051  RH  076%=      5-min Rain = 0
KARS 180426Z 19006KT M01/M05 A3002 RMK A01 T10141052  RH  075%=      5-min Rain = 0
KARS 180427Z 18005KT M02/M05 A3002 RMK A01 T10151052  RH  076%=      5-min Rain = 0
KARS 180428Z 19005KT M02/M05 A3002 RMK A01 T10151052  RH  076%=      5-min Rain = 0
KARS 180429Z 19005KT M02/M05 A3002 RMK A01 T10161052  RH  076%=      5-min Rain = 0
KARS 180430Z 19006KT M02/M05 A3002 RMK A01 T10151051  RH  076%=      5-min Rain = 0
KARS 180431Z 19006KT M01/M05 A3002 RMK A01 T10141052  RH  075%=      5-min Rain = 0
KARS 180432Z 19006KT M01/M05 A3002 RMK A01 T10141052  RH  075%=      5-min Rain = 0
KARS 180433Z 19007KT M01/M05 A3001 RMK A01 T10141052  RH  076%=      5-min Rain = 0
KARS 180434Z 19007KT M01/M05 A3001 RMK A01 T10141051  RH  075%=      5-min Rain = 0
KARS 180435Z 19008KT M01/M05 A3001 RMK A01 T10121051  RH  075%=      5-min Rain = 0
KARS 180436Z 19008KT M01/M05 A3002 RMK A01 T10101051  RH  074%=      5-min Rain = 0
KARS 180437Z 19008KT M01/M05 A3001 RMK A01 T10101051  RH  073%=      5-min Rain = 0
KARS 180438Z 19008KT M01/M05 A3001 RMK A01 T10101051  RH  073%=      5-min Rain = 0
KARS 180439Z 20009KT M01/M05 A3002 RMK A01 T10101051  RH  073%=      5-min Rain = 0
KARS 180440Z 19009KT M01/M05 A3001 RMK A01 T10101051  RH  074%=      5-min Rain = 0
KARS 180441Z 19009KT M01/M05 A3001 RMK A01 T10101051  RH  074%=      5-min Rain = 0
KARS 180442Z 19009KT M01/M05 A3001 RMK A01 T10101051  RH  074%=      5-min Rain = 0
KARS 180443Z 19008KT M01/M05 A3001 RMK A01 T10101050  RH  074%=      5-min Rain = 0
KARS 180444Z 19008KT M01/M05 A3001 RMK A01 T10101050  RH  074%=      5-min Rain = 0
KARS 180445Z 19008KT M01/M05 A3001 RMK A01 T10101050  RH  074%=      5-min Rain = 0
KARS 180446Z 19008KT M01/M05 A3001 RMK A01 T10101050  RH  074%=      5-min Rain = 0
KARS 180447Z 19008KT M01/M05 A3001 RMK A01 T10101050  RH  074%=      5-min Rain = 0
KARS 180448Z 19008KT M01/M05 A3001 RMK A01 T10091049  RH  074%=      5-min Rain = 0
KARS 180449Z 19008KT M01/M05 A3001 RMK A01 T10081049  RH  074%=      5-min Rain = 0
KARS 180450Z 19008KT M01/M05 A3001 RMK A01 T10081049  RH  074%=      5-min Rain = 0
KARS 180451Z 19008KT M01/M05 A3001 RMK A01 T10091050  RH  074%=      5-min Rain = 0
KARS 180452Z 19008KT M01/M05 A3001 RMK A01 T10091050  RH  074%=      5-min Rain = 0
KARS 180453Z 19008KT M01/M05 A3001 RMK A01 T10091049  RH  074%=      5-min Rain = 0
KARS 180454Z 19008KT M01/M05 A3001 RMK A01 T10091049  RH  074%=      5-min Rain = 0
KARS 180455Z 19008KT M01/M05 A3001 RMK A01 T10091049  RH  074%=      5-min Rain = 0
KARS 180456Z 19008KT M01/M05 A3001 RMK A01 T10081049  RH  074%=      5-min Rain = 0
KARS 180457Z 19008KT M01/M05 A3001 RMK A01 T10081048  RH  074%=      5-min Rain = 0
KARS 180458Z 19008KT M01/M05 A3001 RMK A01 T10081048  RH  074%=      5-min Rain = 0
KARS 180459Z 19008KT M01/M05 A3001 RMK A01 T10081048  RH  074%=      5-min Rain = 0
KARS 180500Z 19007KT M01/M05 A3001 RMK A01 T10081048  RH  074%=      5-min Rain = 0
KARS 180501Z 19007KT M01/M05 A3001 RMK A01 T10081048  RH  074%=      5-min Rain = 0
KARS 180502Z 19008KT M01/M05 A3001 RMK A01 T10091048  RH  074%=      5-min Rain = 0
KARS 180503Z 19008KT M01/M05 A3001 RMK A01 T10091048  RH  075%=      5-min Rain = 0
KARS 180504Z 19008KT M01/M05 A30 RMK A01 T10091048  RH  075%=      5-min Rain = 0
KARS 180505Z 19007KT M01/M05 A30 RMK A01 T10091049  RH  075%=      5-min Rain = 0
KARS 180506Z 19008KT M01/M05 A30 RMK A01 T10101049  RH  075%=      5-min Rain = 0
KARS 180507Z 19008KT M01/M05 A30 RMK A01 T10111049  RH  075%=      5-min Rain = 0
KARS 180508Z 19008KT M01/M05 A30 RMK A01 T10111049  RH  075%=      5-min Rain = 0
KARS 180509Z 19008KT M01/M05 A30 RMK A01 T10111049  RH  075%=      5-min Rain = 0
KARS 180510Z 19008KT M01/M05 A30 RMK A01 T10111049  RH  075%=      5-min Rain = 0
KARS 180511Z 19008KT M01/M05 A30 RMK A01 T10111050  RH  075%=      5-min Rain = 0
KARS 180512Z 19008KT M01/M05 A30 RMK A01 T10111050  RH  075%=      5-min Rain = 0
KARS 180513Z 19008KT M01/M05 A30 RMK A01 T10111049  RH  075%=      5-min Rain = 0
KARS 180514Z 19008KT M01/M05 A30 RMK A01 T10111050  RH  075%=      5-min Rain = 0
KARS 180515Z 19008KT M01/M05 A30 RMK A01 T10121050  RH  075%=      5-min Rain = 0
KARS 180516Z 19008KT M01/M05 A30 RMK A01 T10131050  RH  075%=      5-min Rain = 0
KARS 180517Z 19008KT M01/M05 A30 RMK A01 T10131051  RH  076%=      5-min Rain = 0
KARS 180518Z 20008KT M01/M05 A30 RMK A01 T10141051  RH  076%=      5-min Rain = 0
KARS 180519Z 20008KT M02/M05 A30 RMK A01 T10151051  RH  076%=      5-min Rain = 0
KARS 180520Z 20008KT M02/M05 A30 RMK A01 T10161051  RH  077%=      5-min Rain = 0
KARS 180521Z 20008KT M02/M05 A30 RMK A01 T10171052  RH  077%=      5-min Rain = 0
KARS 180522Z 20008KT M02/M05 A30 RMK A01 T10171052  RH  077%=      5-min Rain = 0
KARS 180523Z 20008KT M02/M05 A30 RMK A01 T10171052  RH  077%=      5-min Rain = 0
KARS 180524Z 20008KT M02/M05 A30 RMK A01 T10171052  RH  077%=      5-min Rain = 0
KARS 180525Z 20008KT M02/M05 A30 RMK A01 T10171052  RH  077%=      5-min Rain = 0
KARS 180526Z 20007KT M02/M05 A30 RMK A01 T10171052  RH  077%=      5-min Rain = 0
KARS 180527Z 20007KT M02/M05 A30 RMK A01 T10161052  RH  077%=      5-min Rain = 0
KARS 180528Z 20008KT M02/M05 A30 RMK A01 T10151051  RH  076%=      5-min Rain = 0
KARS 180529Z 20007KT M01/M05 A2999 RMK A01 T10141051  RH  076%=      5-min Rain = 0
KARS 180530Z 20008KT M01/M05 A30 RMK A01 T10131051  RH  075%=      5-min Rain = 0
KARS 180531Z 20008KT M01/M05 A30 RMK A01 T10131051  RH  075%=      5-min Rain = 0
KARS 180532Z 20007KT M01/M05 A30 RMK A01 T10121051  RH  075%=      5-min Rain = 0
KARS 180533Z 20007KT M01/M05 A2999 RMK A01 T10121051  RH  075%=      5-min Rain = 0
KARS 180534Z 20007KT M01/M05 A2999 RMK A01 T10121051  RH  075%=      5-min Rain = 0
KARS 180535Z 20006KT M01/M05 A2999 RMK A01 T10121051  RH  075%=      5-min Rain = 0
KARS 180536Z 20006KT M01/M05 A2999 RMK A01 T10121050  RH  075%=      5-min Rain = 0
KARS 180537Z 20006KT M01/M05 A2999 RMK A01 T10121050  RH  075%=      5-min Rain = 0
KARS 180538Z 20006KT M01/M05 A2999 RMK A01 T10111050  RH  075%=      5-min Rain = 0
KARS 180539Z 20006KT M01/M05 A2999 RMK A01 T10111050  RH  075%=      5-min Rain = 0
KARS 180540Z 20006KT M01/M05 A2999 RMK A01 T10111050  RH  075%=      5-min Rain = 0
KARS 180541Z 20006KT M01/M05 A2999 RMK A01 T10111050  RH  075%=      5-min Rain = 0
KARS 180542Z 20007KT M01/M05 A2999 RMK A01 T10111050  RH  075%=      5-min Rain = 0
KARS 180543Z 20006KT M01/M05 A2999 RMK A01 T10111050  RH  075%=      5-min Rain = 0
KARS 180544Z 20007KT M01/M05 A2999 RMK A01 T10111049  RH  075%=      5-min Rain = 0
KARS 180545Z 19007KT M01/M05 A2999 RMK A01 T10111048  RH  076%=      5-min Rain = 0
KARS 180546Z 19007KT M01/M05 A2999 RMK A01 T10091046  RH  076%=      5-min Rain = 0
KARS 180547Z 20008KT M01/M05 A2999 RMK A01 T10071045  RH  075%=      5-min Rain = 0
KARS 180548Z 20008KT M01/M05 A2999 RMK A01 T10061045  RH  075%=      5-min Rain = 0
KARS 180549Z 20008KT M01/M05 A2999 RMK A01 T10051045  RH  074%=      5-min Rain = 0
KARS 180550Z 20008KT M00/M05 A2998 RMK A01 T10041045  RH  074%=      5-min Rain = 0
KARS 180551Z 20008KT M00/M05 A2998 RMK A01 T10041045  RH  074%=      5-min Rain = 0
KARS 180552Z 20008KT M00/M05 A2998 RMK A01 T10031045  RH  073%=      5-min Rain = 0
KARS 180553Z 20008KT M00/M05 A2998 RMK A01 T10031045  RH  073%=      5-min Rain = 0
KARS 180554Z 20008KT M00/M05 A2998 RMK A01 T10031045  RH  073%=      5-min Rain = 0
KARS 180555Z 20008KT M00/M05 A2998 RMK A01 T10031045  RH  073%=      5-min Rain = 0
KARS 180556Z 20008KT M00/M05 A2998 RMK A01 T10031045  RH  074%=      5-min Rain = 0
KARS 180557Z 20008KT M00/M05 A2998 RMK A01 T10041045  RH  074%=      5-min Rain = 0
KARS 180558Z 20009KT M00/M05 A2998 RMK A01 T10041045  RH  074%=      5-min Rain = 0
KARS 180559Z 20009KT M00/M05 A2998 RMK A01 T10041045  RH  074%=      5-min Rain = 0

Page generated in 0.2105 seconds.